Wetterdaten: Sonntag, 23.10.2022
Datum Zeit Temp. 2m Temp +5 cm Feuchte A. Luftdruck Regen Wind Richtung Richtung Sonnenschein UV Solar Taupunkt Windchill Windben
23.10.2022 00:00 8,1 C 6,1 C 94 % 1017,5 hPa 0,0 l/m 0,3 km/h (0 Bft) SO 124 0 min 0,0 UV-I 0 W/m 7,2 C 8,1 C 1,6 km/h (1 Bft)
23.10.2022 00:03 7,8 C 6,1 C 93 % 1017,4 hPa 0,0 l/m 0,2 km/h (0 Bft) SO 124 0 min 0,0 UV-I 0 W/m 6,7 C 7,8 C 1,6 km/h (1 Bft)
23.10.2022 00:06 7,7 C 5,6 C 94 % 1017,4 hPa 0,0 l/m 0,1 km/h (0 Bft) SO 124 0 min 0,0 UV-I 0 W/m 6,8 C 7,7 C 1,6 km/h (1 Bft)
23.10.2022 00:09 7,7 C 5,6 C 94 % 1017,3 hPa 0,0 l/m 0,2 km/h (0 Bft) SO 124 0 min 0,0 UV-I 0 W/m 6,8 C 7,7 C 1,6 km/h (1 Bft)
23.10.2022 00:12 7,6 C 5,6 C 93 % 1017,4 hPa 0,0 l/m 0,2 km/h (0 Bft) SO 124 0 min 0,0 UV-I 0 W/m 6,5 C 7,6 C 1,6 km/h (1 Bft)
23.10.2022 00:15 7,6 C 5,6 C 94 % 1017,3 hPa 0,0 l/m 0,0 km/h (0 Bft) SO 124 0 min 0,0 UV-I 0 W/m 6,7 C 7,6 C 0,0 km/h (0 Bft)
23.10.2022 00:18 7,6 C 5,6 C 94 % 1017,3 hPa 0,0 l/m 0,0 km/h (0 Bft) SO 124 0 min 0,0 UV-I 0 W/m 6,7 C 7,6 C 0,0 km/h (0 Bft)
23.10.2022 00:21 7,6 C 5,6 C 94 % 1017,3 hPa 0,0 l/m 0,0 km/h (0 Bft) SO 124 0 min 0,0 UV-I 0 W/m 6,7 C 7,6 C 0,0 km/h (0 Bft)
23.10.2022 00:24 7,5 C 5,6 C 94 % 1017,2 hPa 0,0 l/m 0,1 km/h (0 Bft) SO 124 0 min 0,0 UV-I 0 W/m 6,6 C 7,5 C 1,6 km/h (1 Bft)
23.10.2022 00:27 7,7 C 5,6 C 94 % 1017,3 hPa 0,0 l/m 0,0 km/h (0 Bft) SO 124 0 min 0,0 UV-I 0 W/m 6,8 C 7,7 C 0,0 km/h (0 Bft)
23.10.2022 00:30 7,5 C 6,1 C 94 % 1017,3 hPa 0,0 l/m 0,0 km/h (0 Bft) SO 124 0 min 0,0 UV-I 0 W/m 6,6 C 7,5 C 0,0 km/h (0 Bft)
23.10.2022 00:33 7,4 C 6,1 C 94 % 1017,4 hPa 0,0 l/m 0,0 km/h (0 Bft) SO 124 0 min 0,0 UV-I 0 W/m 6,5 C 7,4 C 0,0 km/h (0 Bft)
23.10.2022 00:36 7,3 C 6,1 C 94 % 1017,4 hPa 0,0 l/m 0,0 km/h (0 Bft) SO 124 0 min 0,0 UV-I 0 W/m 6,4 C 7,3 C 0,0 km/h (0 Bft)
23.10.2022 00:39 7,4 C 6,1 C 94 % 1017,3 hPa 0,0 l/m 0,0 km/h (0 Bft) SO 124 0 min 0,0 UV-I 0 W/m 6,5 C 7,4 C 0,0 km/h (0 Bft)
23.10.2022 00:42 7,3 C 6,1 C 94 % 1017,3 hPa 0,0 l/m 0,0 km/h (0 Bft) SO 124 0 min 0,0 UV-I 0 W/m 6,4 C 7,3 C 0,0 km/h (0 Bft)
23.10.2022 00:45 7,2 C 6,1 C 94 % 1017,4 hPa 0,0 l/m 0,0 km/h (0 Bft) SO 124 0 min 0,0 UV-I 0 W/m 6,3 C 7,2 C 0,0 km/h (0 Bft)
23.10.2022 00:48 7,3 C 6,1 C 94 % 1017,4 hPa 0,0 l/m 0,0 km/h (0 Bft) SO 124 0 min 0,0 UV-I 0 W/m 6,4 C 7,3 C 0,0 km/h (0 Bft)
23.10.2022 00:51 7,3 C 6,1 C 94 % 1017,3 hPa 0,0 l/m 0,0 km/h (0 Bft) SO 124 0 min 0,0 UV-I 0 W/m 6,4 C 7,3 C 0,0 km/h (0 Bft)
23.10.2022 00:54 7,3 C 6,1 C 94 % 1017,3 hPa 0,0 l/m 0,0 km/h (0 Bft) SO 124 0 min 0,0 UV-I 0 W/m 6,4 C 7,3 C 0,0 km/h (0 Bft)
23.10.2022 00:57 7,2 C 5,6 C 94 % 1017,3 hPa 0,0 l/m 0,0 km/h (0 Bft) SO 124 0 min 0,0 UV-I 0 W/m 6,3 C 7,2 C 0,0 km/h (0 Bft)
23.10.2022 01:00 7,1 C 5,6 C 94 % 1017,3 hPa 0,0 l/m 0,0 km/h (0 Bft) SO 124 0 min 0,0 UV-I 0 W/m 6,2 C 7,1 C 0,0 km/h (0 Bft)
23.10.2022 01:03 7,1 C 5,6 C 94 % 1017,4 hPa 0,0 l/m 0,0 km/h (0 Bft) SO 124 0 min 0,0 UV-I 0 W/m 6,2 C 7,1 C 0,0 km/h (0 Bft)
23.10.2022 01:06 6,9 C 5,6 C 94 % 1017,2 hPa 0,0 l/m 0,0 km/h (0 Bft) SO 124 0 min 0,0 UV-I 0 W/m 6,0 C 6,9 C 0,0 km/h (0 Bft)
23.10.2022 01:09 6,8 C 5,0 C 94 % 1017,3 hPa 0,0 l/m 0,0 km/h (0 Bft) SO 124 0 min 0,0 UV-I 0 W/m 5,9 C 6,8 C 0,0 km/h (0 Bft)
23.10.2022 01:12 6,8 C 5,0 C 94 % 1017,3 hPa 0,0 l/m 0,0 km/h (0 Bft) SO 124 0 min 0,0 UV-I 0 W/m 5,9 C 6,8 C 0,0 km/h (0 Bft)
23.10.2022 01:15 6,7 C 5,0 C 94 % 1017,2 hPa 0,0 l/m 0,0 km/h (0 Bft) SO 124 0 min 0,0 UV-I 0 W/m 5,8 C 6,7 C 0,0 km/h (0 Bft)
23.10.2022 01:18 6,8 C 5,0 C 94 % 1017,3 hPa 0,0 l/m 0,0 km/h (0 Bft) SO 124 0 min 0,0 UV-I 0 W/m 5,9 C 6,8 C 0,0 km/h (0 Bft)
23.10.2022 01:21 6,8 C 5,0 C 94 % 1017,3 hPa 0,0 l/m 0,0 km/h (0 Bft) SO 124 0 min 0,0 UV-I 0 W/m 5,9 C 6,8 C 0,0 km/h (0 Bft)
23.10.2022 01:24 6,9 C 5,0 C 94 % 1017,4 hPa 0,0 l/m 0,0 km/h (0 Bft) SO 124 0 min 0,0 UV-I 0 W/m 6,0 C 6,9 C 0,0 km/h (0 Bft)
23.10.2022 01:27 6,8 C 5,0 C 94 % 1017,3 hPa 0,0 l/m 0,0 km/h (0 Bft) SO 124 0 min 0,0 UV-I 0 W/m 5,9 C 6,8 C 0,0 km/h (0 Bft)
23.10.2022 01:30 6,8 C 5,0 C 94 % 1017,3 hPa 0,0 l/m 0,0 km/h (0 Bft) SO 124 0 min 0,0 UV-I 0 W/m 5,9 C 6,8 C 0,0 km/h (0 Bft)
23.10.2022 01:33 6,9 C 5,0 C 94 % 1017,2 hPa 0,0 l/m 0,0 km/h (0 Bft) SO 124 0 min 0,0 UV-I 0 W/m 6,0 C 6,9 C 0,0 km/h (0 Bft)
23.10.2022 01:36 6,8 C 5,0 C 94 % 1017,1 hPa 0,0 l/m 0,0 km/h (0 Bft) SO 124 0 min 0,0 UV-I 0 W/m 5,9 C 6,8 C 0,0 km/h (0 Bft)
23.10.2022 01:39 6,7 C 5,0 C 94 % 1017,1 hPa 0,0 l/m 0,0 km/h (0 Bft) SO 124 0 min 0,0 UV-I 0 W/m 5,8 C 6,7 C 0,0 km/h (0 Bft)
23.10.2022 01:42 6,6 C 5,0 C 94 % 1017,1 hPa 0,0 l/m 0,0 km/h (0 Bft) SO 124 0 min 0,0 UV-I 0 W/m 5,7 C 6,6 C 0,0 km/h (0 Bft)
23.10.2022 01:45 6,4 C 5,0 C 94 % 1017,0 hPa 0,0 l/m 0,0 km/h (0 Bft) SO 124 0 min 0,0 UV-I 0 W/m 5,5 C 6,4 C 0,0 km/h (0 Bft)
23.10.2022 01:48 6,4 C 4,4 C 94 % 1017,1 hPa 0,0 l/m 0,1 km/h (0 Bft) SO 124 0 min 0,0 UV-I 0 W/m 5,5 C 6,4 C 1,6 km/h (1 Bft)
23.10.2022 01:51 6,4 C 5,0 C 94 % 1017,1 hPa 0,0 l/m 0,3 km/h (0 Bft) SO 124 0 min 0,0 UV-I 0 W/m 5,5 C 6,4 C 1,6 km/h (1 Bft)
23.10.2022 01:54 6,4 C 5,0 C 94 % 1017,1 hPa 0,0 l/m 0,0 km/h (0 Bft) SO 124 0 min 0,0 UV-I 0 W/m 5,5 C 6,4 C 0,0 km/h (0 Bft)
23.10.2022 01:57 6,5 C 5,0 C 94 % 1017,1 hPa 0,0 l/m 0,0 km/h (0 Bft) SO 124 0 min 0,0 UV-I 0 W/m 5,6 C 6,5 C 0,0 km/h (0 Bft)
23.10.2022 02:00 6,4 C 5,0 C 94 % 1017,1 hPa 0,0 l/m 0,0 km/h (0 Bft) SO 124 0 min 0,0 UV-I 0 W/m 5,5 C 6,4 C 0,0 km/h (0 Bft)
23.10.2022 02:03 6,3 C 5,0 C 94 % 1016,9 hPa 0,0 l/m 0,0 km/h (0 Bft) SO 124 0 min 0,0 UV-I 0 W/m 5,4 C 6,3 C 0,0 km/h (0 Bft)
23.10.2022 02:06 6,2 C 5,0 C 94 % 1016,9 hPa 0,0 l/m 0,0 km/h (0 Bft) SO 124 0 min 0,0 UV-I 0 W/m 5,3 C 6,2 C 0,0 km/h (0 Bft)
23.10.2022 02:09 6,2 C 5,0 C 94 % 1016,9 hPa 0,0 l/m 0,0 km/h (0 Bft) SO 124 0 min 0,0 UV-I 0 W/m 5,3 C 6,2 C 0,0 km/h (0 Bft)
23.10.2022 02:12 6,2 C 5,0 C 94 % 1016,8 hPa 0,0 l/m 0,0 km/h (0 Bft) SO 124 0 min 0,0 UV-I 0 W/m 5,3 C 6,2 C 0,0 km/h (0 Bft)
23.10.2022 02:15 6,2 C 5,0 C 94 % 1016,8 hPa 0,0 l/m 0,0 km/h (0 Bft) SO 124 0 min 0,0 UV-I 0 W/m 5,3 C 6,2 C 0,0 km/h (0 Bft)
23.10.2022 02:18 6,1 C 5,0 C 94 % 1016,8 hPa 0,0 l/m 0,0 km/h (0 Bft) SO 124 0 min 0,0 UV-I 0 W/m 5,2 C 6,1 C 0,0 km/h (0 Bft)
23.10.2022 02:21 5,9 C 4,4 C 94 % 1016,9 hPa 0,0 l/m 0,0 km/h (0 Bft) SO 124 0 min 0,0 UV-I 0 W/m 5,0 C 5,9 C 0,0 km/h (0 Bft)
23.10.2022 02:24 5,9 C 5,0 C 94 % 1016,8 hPa 0,0 l/m 0,0 km/h (0 Bft) SO 124 0 min 0,0 UV-I 0 W/m 5,0 C 5,9 C 0,0 km/h (0 Bft)
23.10.2022 02:27 5,8 C 5,0 C 94 % 1016,9 hPa 0,0 l/m 0,0 km/h (0 Bft) SO 124 0 min 0,0 UV-I 0 W/m 4,9 C 5,8 C 0,0 km/h (0 Bft)
23.10.2022 02:30 5,8 C 5,0 C 94 % 1016,8 hPa 0,0 l/m 0,0 km/h (0 Bft) SO 124 0 min 0,0 UV-I 0 W/m 4,9 C 5,8 C 0,0 km/h (0 Bft)
23.10.2022 02:33 5,7 C 4,4 C 94 % 1016,8 hPa 0,0 l/m 0,0 km/h (0 Bft) SO 124 0 min 0,0 UV-I 0 W/m 4,8 C 5,7 C 0,0 km/h (0 Bft)
23.10.2022 02:36 5,7 C 4,4 C 94 % 1016,8 hPa 0,0 l/m 0,0 km/h (0 Bft) SO 124 0 min 0,0 UV-I 0 W/m 4,8 C 5,7 C 0,0 km/h (0 Bft)
23.10.2022 02:39 5,6 C 4,4 C 94 % 1016,9 hPa 0,0 l/m 0,0 km/h (0 Bft) SO 124 0 min 0,0 UV-I 0 W/m 4,7 C 5,6 C 0,0 km/h (0 Bft)
23.10.2022 02:42 5,6 C 4,4 C 94 % 1016,9 hPa 0,0 l/m 1,2 km/h (1 Bft) S 171 0 min 0,0 UV-I 0 W/m 4,7 C 5,6 C 6,4 km/h (2 Bft)
23.10.2022 02:45 5,7 C 4,4 C 94 % 1016,8 hPa 0,0 l/m 2,7 km/h (1 Bft) S 184 0 min 0,0 UV-I 0 W/m 4,8 C 5,7 C 4,8 km/h (1 Bft)
23.10.2022 02:48 5,8 C 4,4 C 95 % 1016,9 hPa 0,0 l/m 2,7 km/h (1 Bft) S 184 0 min 0,0 UV-I 0 W/m 5,1 C 5,8 C 4,8 km/h (1 Bft)
23.10.2022 02:51 6,0 C 4,4 C 95 % 1017,0 hPa 0,0 l/m 1,4 km/h (1 Bft) S 184 0 min 0,0 UV-I 0 W/m 5,3 C 6,0 C 4,8 km/h (1 Bft)
23.10.2022 02:54 5,8 C 4,4 C 94 % 1017,0 hPa 0,0 l/m 0,9 km/h (0 Bft) S 184 0 min 0,0 UV-I 0 W/m 4,9 C 5,8 C 3,2 km/h (1 Bft)
23.10.2022 02:57 5,8 C 4,4 C 94 % 1016,9 hPa 0,0 l/m 1,2 km/h (1 Bft) S 184 0 min 0,0 UV-I 0 W/m 4,9 C 5,8 C 3,2 km/h (1 Bft)
23.10.2022 03:00 5,9 C 4,4 C 95 % 1016,8 hPa 0,0 l/m 2,2 km/h (1 Bft) S 184 0 min 0,0 UV-I 0 W/m 5,2 C 5,9 C 3,2 km/h (1 Bft)
23.10.2022 03:03 5,9 C 5,0 C 95 % 1016,7 hPa 0,0 l/m 0,2 km/h (0 Bft) S 184 0 min 0,0 UV-I 0 W/m 5,2 C 5,9 C 1,6 km/h (1 Bft)
23.10.2022 03:06 5,9 C 5,0 C 95 % 1016,7 hPa 0,0 l/m 0,2 km/h (0 Bft) S 184 0 min 0,0 UV-I 0 W/m 5,2 C 5,9 C 1,6 km/h (1 Bft)
23.10.2022 03:09 6,1 C 5,0 C 94 % 1016,8 hPa 0,0 l/m 0,3 km/h (0 Bft) S 184 0 min 0,0 UV-I 0 W/m 5,2 C 6,1 C 1,6 km/h (1 Bft)
23.10.2022 03:12 6,0 C 5,0 C 94 % 1016,8 hPa 0,0 l/m 2,1 km/h (1 Bft) S 184 0 min 0,0 UV-I 0 W/m 5,1 C 6,0 C 4,8 km/h (1 Bft)
23.10.2022 03:15 5,9 C 5,0 C 94 % 1016,8 hPa 0,0 l/m 1,5 km/h (1 Bft) S 184 0 min 0,0 UV-I 0 W/m 5,0 C 5,9 C 3,2 km/h (1 Bft)
23.10.2022 03:18 5,7 C 5,0 C 94 % 1016,7 hPa 0,0 l/m 0,8 km/h (0 Bft) S 184 0 min 0,0 UV-I 0 W/m 4,8 C 5,7 C 1,6 km/h (1 Bft)
23.10.2022 03:21 5,6 C 5,0 C 94 % 1016,7 hPa 0,0 l/m 0,2 km/h (0 Bft) S 184 0 min 0,0 UV-I 0 W/m 4,7 C 5,6 C 1,6 km/h (1 Bft)
23.10.2022 03:24 5,6 C 4,4 C 94 % 1016,7 hPa 0,0 l/m 0,0 km/h (0 Bft) S 184 0 min 0,0 UV-I 0 W/m 4,7 C 5,6 C 0,0 km/h (0 Bft)
23.10.2022 03:27 5,7 C 4,4 C 94 % 1016,8 hPa 0,0 l/m 0,0 km/h (0 Bft) S 184 0 min 0,0 UV-I 0 W/m 4,8 C 5,7 C 0,0 km/h (0 Bft)
23.10.2022 03:30 5,7 C 5,0 C 94 % 1016,8 hPa 0,0 l/m 0,0 km/h (0 Bft) S 184 0 min 0,0 UV-I 0 W/m 4,8 C 5,7 C 0,0 km/h (0 Bft)
23.10.2022 03:33 5,7 C 5,0 C 94 % 1016,7 hPa 0,0 l/m 0,0 km/h (0 Bft) S 184 0 min 0,0 UV-I 0 W/m 4,8 C 5,7 C 0,0 km/h (0 Bft)
23.10.2022 03:36 5,8 C 5,0 C 94 % 1016,6 hPa 0,0 l/m 0,0 km/h (0 Bft) S 184 0 min 0,0 UV-I 0 W/m 4,9 C 5,8 C 0,0 km/h (0 Bft)
23.10.2022 03:39 6,1 C 5,0 C 95 % 1016,7 hPa 0,0 l/m 0,0 km/h (0 Bft) S 184 0 min 0,0 UV-I 0 W/m 5,4 C 6,1 C 0,0 km/h (0 Bft)
23.10.2022 03:42 6,1 C 5,0 C 95 % 1016,5 hPa 0,0 l/m 0,3 km/h (0 Bft) S 184 0 min 0,0 UV-I 0 W/m 5,4 C 6,1 C 1,6 km/h (1 Bft)
23.10.2022 03:45 6,1 C 5,6 C 95 % 1016,5 hPa 0,0 l/m 1,8 km/h (1 Bft) S 184 0 min 0,0 UV-I 0 W/m 5,4 C 6,1 C 3,2 km/h (1 Bft)
23.10.2022 03:48 6,1 C 5,6 C 95 % 1016,4 hPa 0,0 l/m 0,0 km/h (0 Bft) S 184 0 min 0,0 UV-I 0 W/m 5,4 C 6,1 C 0,0 km/h (0 Bft)
23.10.2022 03:51 6,1 C 5,6 C 95 % 1016,3 hPa 0,0 l/m 0,2 km/h (0 Bft) S 184 0 min 0,0 UV-I 0 W/m 5,4 C 6,1 C 1,6 km/h (1 Bft)
23.10.2022 03:54 5,9 C 5,6 C 95 % 1016,4 hPa 0,0 l/m 0,0 km/h (0 Bft) S 184 0 min 0,0 UV-I 0 W/m 5,2 C 5,9 C 0,0 km/h (0 Bft)
23.10.2022 03:57 6,1 C 5,6 C 95 % 1016,3 hPa 0,0 l/m 0,0 km/h (0 Bft) S 184 0 min 0,0 UV-I 0 W/m 5,4 C 6,1 C 0,0 km/h (0 Bft)
23.10.2022 04:00 6,1 C 5,6 C 95 % 1016,4 hPa 0,0 l/m 0,1 km/h (0 Bft) S 184 0 min 0,0 UV-I 0 W/m 5,4 C 6,1 C 1,6 km/h (1 Bft)
23.10.2022 04:03 6,2 C 5,6 C 95 % 1016,3 hPa 0,0 l/m 0,3 km/h (0 Bft) S 184 0 min 0,0 UV-I 0 W/m 5,5 C 6,2 C 1,6 km/h (1 Bft)
23.10.2022 04:06 6,2 C 5,6 C 95 % 1016,4 hPa 0,0 l/m 1,0 km/h (0 Bft) S 184 0 min 0,0 UV-I 0 W/m 5,5 C 6,2 C 3,2 km/h (1 Bft)
23.10.2022 04:09 6,2 C 5,6 C 95 % 1016,4 hPa 0,0 l/m 1,6 km/h (1 Bft) S 184 0 min 0,0 UV-I 0 W/m 5,5 C 6,2 C 3,2 km/h (1 Bft)
23.10.2022 04:12 6,2 C 5,6 C 95 % 1016,3 hPa 0,0 l/m 1,5 km/h (1 Bft) S 184 0 min 0,0 UV-I 0 W/m 5,5 C 6,2 C 3,2 km/h (1 Bft)
23.10.2022 04:15 6,2 C 5,6 C 95 % 1016,2 hPa 0,0 l/m 0,3 km/h (0 Bft) S 184 0 min 0,0 UV-I 0 W/m 5,5 C 6,2 C 1,6 km/h (1 Bft)
23.10.2022 04:18 6,3 C 6,1 C 95 % 1016,1 hPa 0,0 l/m 1,5 km/h (1 Bft) S 184 0 min 0,0 UV-I 0 W/m 5,6 C 6,3 C 3,2 km/h (1 Bft)
23.10.2022 04:21 6,3 C 5,6 C 95 % 1016,1 hPa 0,0 l/m 0,3 km/h (0 Bft) S 184 0 min 0,0 UV-I 0 W/m 5,6 C 6,3 C 1,6 km/h (1 Bft)
23.10.2022 04:24 6,3 C 5,6 C 95 % 1016,1 hPa 0,0 l/m 0,0 km/h (0 Bft) S 184 0 min 0,0 UV-I 0 W/m 5,6 C 6,3 C 0,0 km/h (0 Bft)
23.10.2022 04:27 6,3 C 6,1 C 95 % 1016,0 hPa 0,0 l/m 0,0 km/h (0 Bft) S 184 0 min 0,0 UV-I 0 W/m 5,6 C 6,3 C 0,0 km/h (0 Bft)
23.10.2022 04:30 6,3 C 6,1 C 95 % 1015,9 hPa 0,0 l/m 0,4 km/h (0 Bft) S 184 0 min 0,0 UV-I 0 W/m 5,6 C 6,3 C 1,6 km/h (1 Bft)
23.10.2022 04:33 6,2 C 6,1 C 95 % 1015,9 hPa 0,0 l/m 1,0 km/h (0 Bft) S 184 0 min 0,0 UV-I 0 W/m 5,5 C 6,2 C 3,2 km/h (1 Bft)
23.10.2022 04:36 6,2 C 6,1 C 95 % 1016,0 hPa 0,0 l/m 0,0 km/h (0 Bft) S 184 0 min 0,0 UV-I 0 W/m 5,5 C 6,2 C 1,6 km/h (1 Bft)
23.10.2022 04:39 6,1 C 6,1 C 95 % 1015,9 hPa 0,0 l/m 0,0 km/h (0 Bft) S 184 0 min 0,0 UV-I 0 W/m 5,4 C 6,1 C 0,0 km/h (0 Bft)
23.10.2022 04:42 6,2 C 6,1 C 95 % 1015,9 hPa 0,0 l/m 0,0 km/h (0 Bft) S 184 0 min 0,0 UV-I 0 W/m 5,5 C 6,2 C 0,0 km/h (0 Bft)
23.10.2022 04:45 6,2 C 6,1 C 95 % 1015,9 hPa 0,0 l/m 0,2 km/h (0 Bft) S 184 0 min 0,0 UV-I 0 W/m 5,5 C 6,2 C 1,6 km/h (1 Bft)
23.10.2022 04:48 6,3 C 6,7 C 95 % 1015,7 hPa 0,0 l/m 1,8 km/h (1 Bft) S 184 0 min 0,0 UV-I 0 W/m 5,6 C 6,3 C 3,2 km/h (1 Bft)
23.10.2022 04:51 6,3 C 6,1 C 95 % 1015,7 hPa 0,0 l/m 1,1 km/h (1 Bft) S 184 0 min 0,0 UV-I 0 W/m 5,6 C 6,3 C 3,2 km/h (1 Bft)
23.10.2022 04:54 6,4 C 6,1 C 95 % 1015,8 hPa 0,0 l/m 1,2 km/h (1 Bft) SW 223 0 min 0,0 UV-I 0 W/m 5,7 C 6,4 C 4,8 km/h (1 Bft)
23.10.2022 04:57 6,4 C 6,1 C 95 % 1015,8 hPa 0,0 l/m 1,9 km/h (1 Bft) SW 223 0 min 0,0 UV-I 0 W/m 5,7 C 6,4 C 3,2 km/h (1 Bft)
23.10.2022 05:00 6,4 C 6,1 C 95 % 1015,8 hPa 0,0 l/m 0,9 km/h (0 Bft) SW 223 0 min 0,0 UV-I 0 W/m 5,7 C 6,4 C 3,2 km/h (1 Bft)
23.10.2022 05:03 6,2 C 5,6 C 95 % 1015,8 hPa 0,0 l/m 2,1 km/h (1 Bft) SW 223 0 min 0,0 UV-I 0 W/m 5,5 C 6,2 C 3,2 km/h (1 Bft)
23.10.2022 05:06 6,1 C 5,6 C 95 % 1015,8 hPa 0,0 l/m 3,2 km/h (1 Bft) SW 223 0 min 0,0 UV-I 0 W/m 5,4 C 6,1 C 4,8 km/h (1 Bft)
23.10.2022 05:09 6,4 C 6,1 C 95 % 1015,7 hPa 0,0 l/m 2,9 km/h (1 Bft) SW 223 0 min 0,0 UV-I 0 W/m 5,7 C 6,4 C 4,8 km/h (1 Bft)
23.10.2022 05:12 6,7 C 6,1 C 95 % 1015,6 hPa 0,0 l/m 1,5 km/h (1 Bft) SW 223 0 min 0,0 UV-I 0 W/m 6,0 C 6,7 C 3,2 km/h (1 Bft)
23.10.2022 05:15 6,8 C 6,1 C 95 % 1015,7 hPa 0,0 l/m 0,2 km/h (0 Bft) SW 223 0 min 0,0 UV-I 0 W/m 6,1 C 6,8 C 1,6 km/h (1 Bft)
23.10.2022 05:18 6,6 C 6,1 C 95 % 1015,7 hPa 0,0 l/m 1,5 km/h (1 Bft) SW 223 0 min 0,0 UV-I 0 W/m 5,9 C 6,6 C 3,2 km/h (1 Bft)
23.10.2022 05:21 6,5 C 5,6 C 95 % 1015,7 hPa 0,0 l/m 3,1 km/h (1 Bft) SW 223 0 min 0,0 UV-I 0 W/m 5,8 C 6,5 C 4,8 km/h (1 Bft)
23.10.2022 05:24 7,0 C 6,1 C 95 % 1015,9 hPa 0,0 l/m 3,6 km/h (1 Bft) SW 223 0 min 0,0 UV-I 0 W/m 6,3 C 7,0 C 4,8 km/h (1 Bft)
23.10.2022 05:27 6,9 C 6,1 C 95 % 1015,7 hPa 0,0 l/m 1,2 km/h (1 Bft) SW 223 0 min 0,0 UV-I 0 W/m 6,2 C 6,9 C 3,2 km/h (1 Bft)
23.10.2022 05:30 6,4 C 6,1 C 95 % 1015,7 hPa 0,0 l/m 0,9 km/h (0 Bft) SW 223 0 min 0,0 UV-I 0 W/m 5,7 C 6,4 C 3,2 km/h (1 Bft)
23.10.2022 05:33 6,4 C 6,1 C 95 % 1015,6 hPa 0,0 l/m 1,5 km/h (1 Bft) SW 223 0 min 0,0 UV-I 0 W/m 5,7 C 6,4 C 3,2 km/h (1 Bft)
23.10.2022 05:36 6,5 C 5,6 C 95 % 1015,7 hPa 0,0 l/m 0,3 km/h (0 Bft) SW 223 0 min 0,0 UV-I 0 W/m 5,8 C 6,5 C 1,6 km/h (1 Bft)
23.10.2022 05:39 6,6 C 5,6 C 95 % 1015,6 hPa 0,0 l/m 0,6 km/h (0 Bft) SW 223 0 min 0,0 UV-I 0 W/m 5,9 C 6,6 C 1,6 km/h (1 Bft)
23.10.2022 05:42 6,7 C 5,6 C 95 % 1015,5 hPa 0,0 l/m 0,4 km/h (0 Bft) SW 223 0 min 0,0 UV-I 0 W/m 6,0 C 6,7 C 1,6 km/h (1 Bft)
23.10.2022 05:45 6,6 C 6,1 C 95 % 1015,5 hPa 0,0 l/m 0,6 km/h (0 Bft) SW 223 0 min 0,0 UV-I 0 W/m 5,9 C 6,6 C 3,2 km/h (1 Bft)
23.10.2022 05:48 6,5 C 5,6 C 95 % 1015,5 hPa 0,0 l/m 0,6 km/h (0 Bft) SW 223 0 min 0,0 UV-I 0 W/m 5,8 C 6,5 C 3,2 km/h (1 Bft)
23.10.2022 05:51 6,4 C 5,6 C 95 % 1015,6 hPa 0,0 l/m 0,4 km/h (0 Bft) SW 223 0 min 0,0 UV-I 0 W/m 5,7 C 6,4 C 1,6 km/h (1 Bft)
23.10.2022 05:54 6,3 C 5,6 C 95 % 1015,5 hPa 0,0 l/m 1,1 km/h (1 Bft) SW 223 0 min 0,0 UV-I 0 W/m 5,6 C 6,3 C 3,2 km/h (1 Bft)
23.10.2022 05:57 6,3 C 5,6 C 95 % 1015,5 hPa 0,0 l/m 0,6 km/h (0 Bft) SW 223 0 min 0,0 UV-I 0 W/m 5,6 C 6,3 C 1,6 km/h (1 Bft)
23.10.2022 06:00 6,3 C 5,6 C 95 % 1015,4 hPa 0,0 l/m 0,5 km/h (0 Bft) SW 223 0 min 0,0 UV-I 0 W/m 5,6 C 6,3 C 1,6 km/h (1 Bft)
23.10.2022 06:03 6,3 C 6,1 C 95 % 1015,4 hPa 0,0 l/m 1,6 km/h (1 Bft) SW 223 0 min 0,0 UV-I 0 W/m 5,6 C 6,3 C 3,2 km/h (1 Bft)
23.10.2022 06:06 6,3 C 5,6 C 95 % 1015,4 hPa 0,0 l/m 1,5 km/h (1 Bft) SW 223 0 min 0,0 UV-I 0 W/m 5,6 C 6,3 C 3,2 km/h (1 Bft)
23.10.2022 06:09 6,2 C 5,6 C 95 % 1015,3 hPa 0,0 l/m 0,8 km/h (0 Bft) SW 223 0 min 0,0 UV-I 0 W/m 5,5 C 6,2 C 1,6 km/h (1 Bft)
23.10.2022 06:12 6,3 C 5,6 C 95 % 1015,4 hPa 0,0 l/m 1,5 km/h (1 Bft) SW 223 0 min 0,0 UV-I 0 W/m 5,6 C 6,3 C 3,2 km/h (1 Bft)
23.10.2022 06:15 6,3 C 5,6 C 95 % 1015,3 hPa 0,0 l/m 0,6 km/h (0 Bft) SW 223 0 min 0,0 UV-I 0 W/m 5,6 C 6,3 C 1,6 km/h (1 Bft)
23.10.2022 06:18 6,3 C 5,6 C 95 % 1015,3 hPa 0,0 l/m 1,1 km/h (1 Bft) SW 223 0 min 0,0 UV-I 0 W/m 5,6 C 6,3 C 3,2 km/h (1 Bft)
23.10.2022 06:21 6,3 C 5,6 C 95 % 1015,3 hPa 0,0 l/m 1,8 km/h (1 Bft) SW 223 0 min 0,0 UV-I 0 W/m 5,6 C 6,3 C 3,2 km/h (1 Bft)
23.10.2022 06:24 6,2 C 5,6 C 95 % 1015,3 hPa 0,0 l/m 1,3 km/h (1 Bft) SW 223 0 min 0,0 UV-I 0 W/m 5,5 C 6,2 C 3,2 km/h (1 Bft)
23.10.2022 06:27 6,2 C 5,6 C 95 % 1015,4 hPa 0,0 l/m 0,7 km/h (0 Bft) SW 223 0 min 0,0 UV-I 0 W/m 5,5 C 6,2 C 3,2 km/h (1 Bft)
23.10.2022 06:30 6,2 C 5,6 C 95 % 1015,2 hPa 0,0 l/m 1,0 km/h (0 Bft) SW 223 0 min 0,0 UV-I 0 W/m 5,5 C 6,2 C 3,2 km/h (1 Bft)
23.10.2022 06:33 6,3 C 5,6 C 95 % 1015,1 hPa 0,0 l/m 1,8 km/h (1 Bft) SW 223 0 min 0,0 UV-I 0 W/m 5,6 C 6,3 C 3,2 km/h (1 Bft)
23.10.2022 06:36 6,2 C 5,6 C 95 % 1015,0 hPa 0,0 l/m 1,5 km/h (1 Bft) SW 223 0 min 0,0 UV-I 0 W/m 5,5 C 6,2 C 3,2 km/h (1 Bft)
23.10.2022 06:39 6,2 C 5,6 C 95 % 1015,0 hPa 0,0 l/m 0,4 km/h (0 Bft) SW 223 0 min 0,0 UV-I 0 W/m 5,5 C 6,2 C 1,6 km/h (1 Bft)
23.10.2022 06:42 6,3 C 5,6 C 95 % 1014,9 hPa 0,0 l/m 3,5 km/h (1 Bft) N-NW 344 0 min 0,0 UV-I 0 W/m 5,6 C 6,3 C 6,4 km/h (2 Bft)
23.10.2022 06:45 6,3 C 5,6 C 95 % 1015,0 hPa 0,0 l/m 2,6 km/h (1 Bft) N-NW 344 0 min 0,0 UV-I 0 W/m 5,6 C 6,3 C 4,8 km/h (1 Bft)
23.10.2022 06:48 6,4 C 5,6 C 95 % 1015,1 hPa 0,0 l/m 1,5 km/h (1 Bft) N-NW 342 0 min 0,0 UV-I 0 W/m 5,7 C 6,4 C 6,4 km/h (2 Bft)
23.10.2022 06:51 6,6 C 5,6 C 95 % 1014,9 hPa 0,0 l/m 2,9 km/h (1 Bft) N-NW 343 0 min 0,0 UV-I 0 W/m 5,9 C 6,6 C 4,8 km/h (1 Bft)
23.10.2022 06:54 6,5 C 5,6 C 95 % 1015,0 hPa 0,0 l/m 0,4 km/h (0 Bft) N-NW 343 0 min 0,0 UV-I 0 W/m 5,8 C 6,5 C 3,2 km/h (1 Bft)
23.10.2022 06:57 6,4 C 5,6 C 95 % 1015,0 hPa 0,0 l/m 0,3 km/h (0 Bft) N-NW 343 0 min 0,0 UV-I 0 W/m 5,7 C 6,4 C 1,6 km/h (1 Bft)
23.10.2022 07:00 6,3 C 5,6 C 95 % 1015,0 hPa 0,0 l/m 0,6 km/h (0 Bft) N-NW 343 0 min 0,0 UV-I 0 W/m 5,6 C 6,3 C 3,2 km/h (1 Bft)
23.10.2022 07:01 6,3 C 5,6 C 95 % 1015,0 hPa 0,0 l/m 1,6 km/h (1 Bft) N-NW 337 0 min 0,0 UV-I 0 W/m 5,6 C 6,3 C 3,2 km/h (1 Bft)
23.10.2022 07:03 6,3 C 5,0 C 95 % 1015,1 hPa 0,0 l/m 1,0 km/h (0 Bft) N-NW 343 0 min 0,0 UV-I 0 W/m 5,6 C 6,3 C 1,6 km/h (1 Bft)
23.10.2022 07:06 6,3 C 5,6 C 95 % 1015,1 hPa 0,0 l/m 1,8 km/h (1 Bft) N-NW 343 0 min 0,0 UV-I 0 W/m 5,6 C 6,3 C 3,2 km/h (1 Bft)
23.10.2022 07:09 6,3 C 5,6 C 95 % 1015,1 hPa 0,0 l/m 1,0 km/h (0 Bft) N-NW 343 0 min 0,0 UV-I 0 W/m 5,6 C 6,3 C 3,2 km/h (1 Bft)
23.10.2022 07:12 6,3 C 5,0 C 95 % 1015,0 hPa 0,0 l/m 2,3 km/h (1 Bft) N-NW 342 0 min 0,0 UV-I 0 W/m 5,6 C 6,3 C 4,8 km/h (1 Bft)
23.10.2022 07:15 6,6 C 5,6 C 95 % 1014,9 hPa 0,0 l/m 1,4 km/h (1 Bft) N-NW 340 0 min 0,0 UV-I 0 W/m 5,9 C 6,6 C 4,8 km/h (1 Bft)
23.10.2022 07:18 6,3 C 5,0 C 95 % 1014,9 hPa 0,0 l/m 0,3 km/h (0 Bft) N-NW 340 0 min 0,0 UV-I 0 W/m 5,6 C 6,3 C 1,6 km/h (1 Bft)
23.10.2022 07:21 6,1 C 5,0 C 95 % 1014,8 hPa 0,0 l/m 0,2 km/h (0 Bft) N-NW 340 0 min 0,0 UV-I 0 W/m 5,4 C 6,1 C 1,6 km/h (1 Bft)
23.10.2022 07:24 6,6 C 5,6 C 95 % 1014,7 hPa 0,0 l/m 2,8 km/h (1 Bft) N-NW 340 0 min 0,0 UV-I 0 W/m 5,9 C 6,6 C 4,8 km/h (1 Bft)
23.10.2022 07:27 6,9 C 5,6 C 95 % 1014,7 hPa 0,0 l/m 1,7 km/h (1 Bft) N-NW 340 0 min 0,0 UV-I 0 W/m 6,2 C 6,9 C 4,8 km/h (1 Bft)
23.10.2022 07:30 7,0 C 5,6 C 95 % 1014,6 hPa 0,0 l/m 2,8 km/h (1 Bft) N-NW 342 0 min 0,0 UV-I 0 W/m 6,3 C 7,0 C 6,4 km/h (2 Bft)
23.10.2022 07:33 6,7 C 5,6 C 95 % 1014,7 hPa 0,0 l/m 2,8 km/h (1 Bft) N-NW 336 0 min 0,0 UV-I 0 W/m 6,0 C 6,7 C 6,4 km/h (2 Bft)
23.10.2022 07:36 6,6 C 5,6 C 95 % 1014,7 hPa 0,0 l/m 2,3 km/h (1 Bft) O-NO 65 0 min 0,0 UV-I 0 W/m 5,9 C 6,6 C 6,4 km/h (2 Bft)
23.10.2022 07:39 6,6 C 5,6 C 95 % 1014,7 hPa 0,0 l/m 0,8 km/h (0 Bft) O-NO 65 0 min 0,0 UV-I 0 W/m 5,9 C 6,6 C 3,2 km/h (1 Bft)
23.10.2022 07:42 6,6 C 5,6 C 95 % 1014,6 hPa 0,0 l/m 0,8 km/h (0 Bft) O-NO 66 0 min 0,0 UV-I 0 W/m 5,9 C 6,6 C 3,2 km/h (1 Bft)
23.10.2022 07:45 6,4 C 5,0 C 95 % 1014,6 hPa 0,0 l/m 0,6 km/h (0 Bft) O-NO 66 0 min 0,0 UV-I 0 W/m 5,7 C 6,4 C 1,6 km/h (1 Bft)
23.10.2022 07:48 6,3 C 5,0 C 95 % 1014,5 hPa 0,0 l/m 1,1 km/h (1 Bft) O-NO 66 0 min 0,0 UV-I 0 W/m 5,6 C 6,3 C 4,8 km/h (1 Bft)
23.10.2022 07:51 6,5 C 5,6 C 95 % 1014,6 hPa 0,0 l/m 2,1 km/h (1 Bft) N-NO 16 0 min 0,0 UV-I 0 W/m 5,8 C 6,5 C 4,8 km/h (1 Bft)
23.10.2022 07:54 6,3 C 5,6 C 95 % 1014,6 hPa 0,0 l/m 2,2 km/h (1 Bft) O 80 0 min 0,0 UV-I 0 W/m 5,6 C 6,3 C 4,8 km/h (1 Bft)
23.10.2022 07:57 6,2 C 5,6 C 95 % 1014,6 hPa 0,0 l/m 0,4 km/h (0 Bft) O 80 0 min 0,0 UV-I 0 W/m 5,5 C 6,2 C 1,6 km/h (1 Bft)
23.10.2022 08:00 6,2 C 5,0 C 95 % 1014,6 hPa 0,0 l/m 0,5 km/h (0 Bft) O 80 0 min 0,0 UV-I 0 W/m 5,5 C 6,2 C 3,2 km/h (1 Bft)
23.10.2022 08:03 6,2 C 5,0 C 95 % 1014,5 hPa 0,0 l/m 1,0 km/h (0 Bft) O 80 0 min 0,0 UV-I 0 W/m 5,5 C 6,2 C 3,2 km/h (1 Bft)
23.10.2022 08:06 6,3 C 5,0 C 95 % 1014,5 hPa 0,0 l/m 0,4 km/h (0 Bft) O 80 0 min 0,0 UV-I 0 W/m 5,6 C 6,3 C 3,2 km/h (1 Bft)
23.10.2022 08:09 6,3 C 5,0 C 95 % 1014,5 hPa 0,0 l/m 0,2 km/h (0 Bft) O 80 0 min 0,0 UV-I 0 W/m 5,6 C 6,3 C 1,6 km/h (1 Bft)
23.10.2022 08:12 6,3 C 5,0 C 95 % 1014,6 hPa 0,0 l/m 0,7 km/h (0 Bft) O 80 0 min 0,0 UV-I 0 W/m 5,6 C 6,3 C 1,6 km/h (1 Bft)
23.10.2022 08:15 6,2 C 5,0 C 95 % 1014,5 hPa 0,0 l/m 2,1 km/h (1 Bft) O 80 0 min 0,0 UV-I 0 W/m 5,5 C 6,2 C 4,8 km/h (1 Bft)
23.10.2022 08:18 6,1 C 5,0 C 95 % 1014,4 hPa 0,0 l/m 0,8 km/h (0 Bft) O 80 0 min 0,0 UV-I 4 W/m 5,4 C 6,1 C 1,6 km/h (1 Bft)
23.10.2022 08:21 6,1 C 5,0 C 95 % 1014,4 hPa 0,0 l/m 0,3 km/h (0 Bft) O 80 0 min 0,0 UV-I 7 W/m 5,4 C 6,1 C 1,6 km/h (1 Bft)
23.10.2022 08:24 6,2 C 5,6 C 95 % 1014,3 hPa 0,0 l/m 0,6 km/h (0 Bft) O 80 0 min 0,0 UV-I 11 W/m 5,5 C 6,2 C 3,2 km/h (1 Bft)
23.10.2022 08:27 6,3 C 5,6 C 95 % 1014,3 hPa 0,0 l/m 0,2 km/h (0 Bft) O 80 0 min 0,0 UV-I 14 W/m 5,6 C 6,3 C 3,2 km/h (1 Bft)
23.10.2022 08:30 6,2 C 5,6 C 95 % 1014,3 hPa 0,0 l/m 0,6 km/h (0 Bft) O 80 0 min 0,0 UV-I 16 W/m 5,5 C 6,2 C 3,2 km/h (1 Bft)
23.10.2022 08:33 6,2 C 6,1 C 95 % 1014,2 hPa 0,0 l/m 0,6 km/h (0 Bft) O 80 0 min 0,0 UV-I 18 W/m 5,5 C 6,2 C 3,2 km/h (1 Bft)
23.10.2022 08:36 6,3 C 6,1 C 95 % 1014,3 hPa 0,0 l/m 1,8 km/h (1 Bft) O 80 0 min 0,0 UV-I 19 W/m 5,6 C 6,3 C 3,2 km/h (1 Bft)
23.10.2022 08:39 6,4 C 6,7 C 95 % 1014,2 hPa 0,0 l/m 0,8 km/h (0 Bft) O 80 0 min 0,0 UV-I 22 W/m 5,7 C 6,4 C 1,6 km/h (1 Bft)
23.10.2022 08:42 6,4 C 6,7 C 95 % 1014,2 hPa 0,0 l/m 0,6 km/h (0 Bft) O 80 0 min 0,0 UV-I 26 W/m 5,7 C 6,4 C 1,6 km/h (1 Bft)
23.10.2022 08:45 6,5 C 6,7 C 95 % 1014,4 hPa 0,0 l/m 0,6 km/h (0 Bft) O 80 0 min 0,0 UV-I 28 W/m 5,8 C 6,5 C 1,6 km/h (1 Bft)
23.10.2022 08:48 6,6 C 6,7 C 95 % 1014,3 hPa 0,0 l/m 0,8 km/h (0 Bft) O 80 0 min 0,0 UV-I 31 W/m 5,9 C 6,6 C 1,6 km/h (1 Bft)
23.10.2022 08:51 6,6 C 6,7 C 95 % 1014,4 hPa 0,0 l/m 1,5 km/h (1 Bft) O 80 0 min 0,0 UV-I 32 W/m 5,9 C 6,6 C 3,2 km/h (1 Bft)
23.10.2022 08:54 6,7 C 6,7 C 95 % 1014,4 hPa 0,0 l/m 1,1 km/h (1 Bft) O 80 0 min 0,0 UV-I 34 W/m 6,0 C 6,7 C 1,6 km/h (1 Bft)
23.10.2022 08:57 6,8 C 7,2 C 95 % 1014,4 hPa 0,0 l/m 1,0 km/h (0 Bft) O 80 0 min 0,0 UV-I 39 W/m 6,1 C 6,8 C 1,6 km/h (1 Bft)
23.10.2022 09:00 6,7 C 7,2 C 95 % 1014,4 hPa 0,0 l/m 0,6 km/h (0 Bft) O 80 0 min 0,0 UV-I 45 W/m 6,0 C 6,7 C 1,6 km/h (1 Bft)
23.10.2022 09:03 6,8 C 7,2 C 95 % 1014,4 hPa 0,0 l/m 0,1 km/h (0 Bft) O 80 0 min 0,0 UV-I 55 W/m 6,1 C 6,8 C 1,6 km/h (1 Bft)
23.10.2022 09:06 6,9 C 7,2 C 95 % 1014,3 hPa 0,0 l/m 0,0 km/h (0 Bft) O 80 0 min 0,0 UV-I 56 W/m 6,2 C 6,9 C 0,0 km/h (0 Bft)
23.10.2022 09:09 7,1 C 8,3 C 95 % 1014,3 hPa 0,0 l/m 0,2 km/h (0 Bft) O 80 0 min 0,0 UV-I 56 W/m 6,4 C 7,1 C 1,6 km/h (1 Bft)
23.10.2022 09:12 7,5 C 8,3 C 96 % 1014,2 hPa 0,0 l/m 0,2 km/h (0 Bft) O 80 0 min 0,0 UV-I 54 W/m 6,9 C 7,5 C 1,6 km/h (1 Bft)
23.10.2022 09:15 7,9 C 8,9 C 96 % 1014,3 hPa 0,0 l/m 0,2 km/h (0 Bft) O 80 0 min 0,0 UV-I 56 W/m 7,3 C 7,9 C 1,6 km/h (1 Bft)
23.10.2022 09:18 8,1 C 8,9 C 95 % 1014,2 hPa 0,0 l/m 0,2 km/h (0 Bft) O 80 0 min 0,0 UV-I 64 W/m 7,3 C 8,1 C 1,6 km/h (1 Bft)
23.10.2022 09:21 8,3 C 9,4 C 96 % 1014,2 hPa 0,0 l/m 0,0 km/h (0 Bft) O 80 0 min 0,0 UV-I 58 W/m 7,7 C 8,3 C 0,0 km/h (0 Bft)
23.10.2022 09:24 8,6 C 10,0 C 96 % 1014,1 hPa 0,0 l/m 0,1 km/h (0 Bft) O 80 0 min 0,0 UV-I 67 W/m 8,0 C 8,6 C 1,6 km/h (1 Bft)
23.10.2022 09:27 8,6 C 10,6 C 96 % 1014,2 hPa 0,0 l/m 0,4 km/h (0 Bft) O 80 0 min 0,0 UV-I 82 W/m 8,0 C 8,6 C 1,6 km/h (1 Bft)
23.10.2022 09:30 8,6 C 10,6 C 96 % 1014,2 hPa 0,0 l/m 0,2 km/h (0 Bft) O-NO 78 0 min 0,0 UV-I 108 W/m 8,0 C 8,6 C 1,6 km/h (1 Bft)
23.10.2022 09:33 8,8 C 10,6 C 96 % 1014,1 hPa 0,0 l/m 0,5 km/h (0 Bft) O 80 0 min 0,0 UV-I 124 W/m 8,2 C 8,8 C 1,6 km/h (1 Bft)
23.10.2022 09:36 8,8 C 10,6 C 96 % 1014,2 hPa 0,0 l/m 0,2 km/h (0 Bft) O 80 0 min 0,0 UV-I 128 W/m 8,2 C 8,8 C 1,6 km/h (1 Bft)
23.10.2022 09:39 8,9 C 10,6 C 96 % 1014,1 hPa 0,0 l/m 0,8 km/h (0 Bft) O 81 0 min 0,0 UV-I 106 W/m 8,3 C 8,9 C 3,2 km/h (1 Bft)
23.10.2022 09:42 9,1 C 11,1 C 96 % 1014,0 hPa 0,0 l/m 1,5 km/h (1 Bft) O 81 0 min 0,0 UV-I 106 W/m 8,5 C 9,1 C 3,2 km/h (1 Bft)
23.10.2022 09:45 9,3 C 10,6 C 96 % 1013,9 hPa 0,0 l/m 0,3 km/h (0 Bft) O 81 0 min 0,0 UV-I 102 W/m 8,7 C 9,3 C 1,6 km/h (1 Bft)
23.10.2022 09:48 9,3 C 10,6 C 96 % 1013,9 hPa 0,0 l/m 0,6 km/h (0 Bft) O 81 0 min 0,0 UV-I 108 W/m 8,7 C 9,3 C 3,2 km/h (1 Bft)
23.10.2022 09:51 9,3 C 10,6 C 96 % 1014,0 hPa 0,0 l/m 0,9 km/h (0 Bft) O 81 0 min 0,0 UV-I 88 W/m 8,7 C 9,3 C 3,2 km/h (1 Bft)
23.10.2022 09:54 9,2 C 10,6 C 96 % 1014,0 hPa 0,0 l/m 0,6 km/h (0 Bft) O 81 0 min 0,0 UV-I 90 W/m 8,6 C 9,2 C 1,6 km/h (1 Bft)
23.10.2022 09:57 9,7 C 11,1 C 96 % 1014,0 hPa 0,0 l/m 1,4 km/h (1 Bft) O 81 0 min 0,0 UV-I 98 W/m 9,1 C 9,7 C 3,2 km/h (1 Bft)
23.10.2022 10:00 9,8 C 11,1 C 96 % 1014,1 hPa 0,0 l/m 1,1 km/h (1 Bft) O 101 0 min 0,5 UV-I 104 W/m 9,2 C 9,8 C 3,2 km/h (1 Bft)
23.10.2022 10:03 10,2 C 11,1 C 96 % 1014,2 hPa 0,0 l/m 2,2 km/h (1 Bft) S-SO 157 0 min 0,5 UV-I 109 W/m 9,6 C 10,2 C 4,8 km/h (1 Bft)
23.10.2022 10:06 10,6 C 11,7 C 96 % 1014,3 hPa 0,0 l/m 4,4 km/h (1 Bft) S-SW 198 0 min 0,5 UV-I 112 W/m 10,0 C 10,6 C 8,0 km/h (2 Bft)
23.10.2022 10:09 10,9 C 11,7 C 96 % 1014,1 hPa 0,0 l/m 4,4 km/h (1 Bft) S-SW 205 0 min 0,6 UV-I 111 W/m 10,3 C 10,9 C 6,4 km/h (2 Bft)
23.10.2022 10:12 10,6 C 12,2 C 96 % 1014,0 hPa 0,0 l/m 3,4 km/h (1 Bft) S 174 0 min 0,6 UV-I 116 W/m 10,0 C 10,6 C 8,0 km/h (2 Bft)
23.10.2022 10:15 10,3 C 12,2 C 96 % 1013,9 hPa 0,0 l/m 0,4 km/h (0 Bft) S 174 0 min 0,6 UV-I 126 W/m 9,7 C 10,3 C 3,2 km/h (1 Bft)
23.10.2022 10:18 10,3 C 12,2 C 96 % 1013,9 hPa 0,0 l/m 1,3 km/h (1 Bft) S 174 0 min 0,7 UV-I 130 W/m 9,7 C 10,3 C 4,8 km/h (1 Bft)
23.10.2022 10:21 10,9 C 12,2 C 96 % 1013,9 hPa 0,0 l/m 3,2 km/h (1 Bft) S 170 0 min 0,7 UV-I 135 W/m 10,3 C 10,9 C 8,0 km/h (2 Bft)
23.10.2022 10:24 10,6 C 12,2 C 96 % 1013,8 hPa 0,0 l/m 0,4 km/h (0 Bft) S 170 0 min 0,7 UV-I 144 W/m 10,0 C 10,6 C 3,2 km/h (1 Bft)
23.10.2022 10:27 10,8 C 12,8 C 96 % 1013,9 hPa 0,0 l/m 1,6 km/h (1 Bft) S 170 0 min 0,7 UV-I 152 W/m 10,2 C 10,8 C 6,4 km/h (2 Bft)
23.10.2022 10:30 11,4 C 12,8 C 96 % 1013,8 hPa 0,0 l/m 4,2 km/h (1 Bft) SW 220 0 min 0,8 UV-I 164 W/m 10,8 C 11,4 C 8,0 km/h (2 Bft)
23.10.2022 10:33 12,2 C 13,3 C 96 % 1013,9 hPa 0,0 l/m 5,5 km/h (1 Bft) S-SW 198 0 min 0,8 UV-I 163 W/m 11,6 C 12,2 C 9,7 km/h (2 Bft)
23.10.2022 10:36 12,6 C 14,4 C 96 % 1013,9 hPa 0,0 l/m 7,0 km/h (2 Bft) S 175 0 min 0,9 UV-I 205 W/m 12,0 C 12,2 C 12,9 km/h (3 Bft)
23.10.2022 10:39 13,0 C 14,4 C 96 % 1014,0 hPa 0,0 l/m 7,5 km/h (2 Bft) S 170 0 min 0,9 UV-I 203 W/m 12,4 C 12,3 C 12,9 km/h (3 Bft)
23.10.2022 10:42 13,3 C 15,0 C 95 % 1013,8 hPa 0,0 l/m 7,1 km/h (2 Bft) SO 136 0 min 0,9 UV-I 171 W/m 12,5 C 12,9 C 14,5 km/h (3 Bft)
23.10.2022 10:45 13,6 C 15,0 C 94 % 1013,5 hPa 0,0 l/m 7,6 km/h (2 Bft) SO 136 0 min 0,9 UV-I 179 W/m 12,7 C 12,9 C 14,5 km/h (3 Bft)
23.10.2022 10:48 13,8 C 15,0 C 93 % 1013,5 hPa 0,0 l/m 9,7 km/h (2 Bft) SO 136 0 min 0,9 UV-I 178 W/m 12,7 C 11,9 C 20,9 km/h (4 Bft)
23.10.2022 10:51 13,9 C 15,0 C 92 % 1013,4 hPa 0,0 l/m 10,6 km/h (2 Bft) S-SO 153 0 min 0,9 UV-I 169 W/m 12,6 C 11,6 C 17,7 km/h (3 Bft)
23.10.2022 10:54 14,1 C 15,6 C 91 % 1013,4 hPa 0,0 l/m 7,0 km/h (2 Bft) S 170 0 min 0,9 UV-I 182 W/m 12,7 C 13,7 C 12,9 km/h (3 Bft)
23.10.2022 10:57 14,2 C 15,6 C 89 % 1013,4 hPa 0,0 l/m 10,8 km/h (2 Bft) S 190 0 min 0,9 UV-I 182 W/m 12,4 C 11,9 C 17,7 km/h (3 Bft)
23.10.2022 11:00 14,4 C 15,6 C 88 % 1013,4 hPa 0,0 l/m 9,1 km/h (2 Bft) S-SO 168 0 min 0,9 UV-I 174 W/m 12,4 C 12,9 C 14,5 km/h (3 Bft)
23.10.2022 11:03 14,6 C 15,6 C 87 % 1013,3 hPa 0,0 l/m 6,1 km/h (2 Bft) S 181 0 min 1,0 UV-I 173 W/m 12,5 C 14,6 C 9,7 km/h (2 Bft)
23.10.2022 11:06 14,7 C 16,1 C 86 % 1013,4 hPa 0,0 l/m 6,7 km/h (2 Bft) S 186 0 min 1,0 UV-I 179 W/m 12,4 C 14,5 C 12,9 km/h (3 Bft)
23.10.2022 11:09 14,9 C 17,2 C 85 % 1013,4 hPa 0,0 l/m 8,2 km/h (2 Bft) S-SO 152 0 min 1,1 UV-I 233 W/m 12,4 C 13,9 C 14,5 km/h (3 Bft)
23.10.2022 11:12 15,3 C 18,9 C 85 % 1013,3 hPa 0,0 l/m 6,9 km/h (2 Bft) S-SW 209 3 min 1,4 UV-I 362 W/m 12,8 C 15,0 C 12,9 km/h (3 Bft)
23.10.2022 11:15 15,6 C 20,0 C 82 % 1013,2 hPa 0,0 l/m 7,1 km/h (2 Bft) S-SW 211 3 min 1,4 UV-I 348 W/m 12,5 C 15,2 C 12,9 km/h (3 Bft)
23.10.2022 11:18 15,9 C 20,6 C 82 % 1013,2 hPa 0,0 l/m 6,5 km/h (2 Bft) S-SO 166 3 min 1,3 UV-I 334 W/m 12,8 C 15,9 C 14,5 km/h (3 Bft)
23.10.2022 11:21 15,9 C 18,3 C 79 % 1013,2 hPa 0,0 l/m 8,9 km/h (2 Bft) SO 134 0 min 1,0 UV-I 234 W/m 12,3 C 14,6 C 16,1 km/h (3 Bft)
23.10.2022 11:24 15,9 C 17,2 C 79 % 1013,1 hPa 0,0 l/m 5,0 km/h (1 Bft) O-SO 123 0 min 0,9 UV-I 183 W/m 12,3 C 15,9 C 8,0 km/h (2 Bft)
23.10.2022 11:27 15,9 C 17,2 C 81 % 1013,1 hPa 0,0 l/m 4,7 km/h (1 Bft) SO 132 0 min 0,9 UV-I 190 W/m 12,6 C 15,9 C 11,3 km/h (2 Bft)
23.10.2022 11:30 15,8 C 16,7 C 80 % 1013,1 hPa 0,0 l/m 11,5 km/h (2 Bft) SO 134 0 min 1,1 UV-I 221 W/m 12,4 C 13,4 C 20,9 km/h (4 Bft)
23.10.2022 11:33 15,8 C 16,7 C 80 % 1013,2 hPa 0,0 l/m 14,3 km/h (3 Bft) S-SO 157 0 min 1,2 UV-I 264 W/m 12,4 C 12,4 C 27,4 km/h (4 Bft)
23.10.2022 11:36 15,8 C 17,2 C 80 % 1013,1 hPa 0,0 l/m 12,2 km/h (2 Bft) SO 134 0 min 1,3 UV-I 286 W/m 12,4 C 13,1 C 25,7 km/h (4 Bft)
23.10.2022 11:39 15,8 C 17,2 C 79 % 1013,3 hPa 0,0 l/m 14,1 km/h (3 Bft) O-SO 114 0 min 1,3 UV-I 271 W/m 12,2 C 12,5 C 24,1 km/h (4 Bft)
23.10.2022 11:42 15,7 C 16,1 C 79 % 1013,1 hPa 0,0 l/m 15,6 km/h (3 Bft) SO 126 0 min 1,1 UV-I 197 W/m 12,1 C 11,9 C 24,1 km/h (4 Bft)
23.10.2022 11:45 15,5 C 15,6 C 79 % 1013,1 hPa 0,0 l/m 16,6 km/h (3 Bft) S-SO 157 0 min 0,9 UV-I 175 W/m 11,9 C 11,3 C 25,7 km/h (4 Bft)
23.10.2022 11:48 15,4 C 15,6 C 80 % 1013,0 hPa 0,0 l/m 14,5 km/h (3 Bft) O-SO 122 0 min 0,9 UV-I 158 W/m 12,0 C 11,8 C 24,1 km/h (4 Bft)
23.10.2022 11:51 15,3 C 15,0 C 80 % 1012,9 hPa 0,0 l/m 16,7 km/h (3 Bft) SO 133 0 min 0,7 UV-I 131 W/m 11,9 C 11,0 C 24,1 km/h (4 Bft)
23.10.2022 11:54 15,2 C 15,0 C 80 % 1012,6 hPa 0,0 l/m 11,0 km/h (2 Bft) S-SO 165 0 min 0,7 UV-I 123 W/m 11,8 C 12,9 C 19,3 km/h (3 Bft)
23.10.2022 11:57 15,2 C 15,0 C 80 % 1012,5 hPa 0,0 l/m 11,2 km/h (2 Bft) SO 127 0 min 0,6 UV-I 109 W/m 11,8 C 12,8 C 19,3 km/h (3 Bft)
23.10.2022 12:00 15,2 C 15,0 C 81 % 1012,4 hPa 0,0 l/m 9,1 km/h (2 Bft) O-SO 118 0 min 0,5 UV-I 94 W/m 12,0 C 13,8 C 14,5 km/h (3 Bft)
23.10.2022 12:03 15,1 C 15,0 C 81 % 1012,4 hPa 0,0 l/m 5,9 km/h (2 Bft) SO 129 0 min 0,5 UV-I 89 W/m 11,9 C 15,1 C 11,3 km/h (2 Bft)
23.10.2022 12:06 15,2 C 15,0 C 81 % 1012,5 hPa 0,0 l/m 3,7 km/h (1 Bft) S-SW 212 0 min 0,5 UV-I 90 W/m 12,0 C 15,2 C 9,7 km/h (2 Bft)
23.10.2022 12:09 15,2 C 15,0 C 80 % 1012,4 hPa 0,0 l/m 4,2 km/h (1 Bft) SO 146 0 min 0,2 UV-I 78 W/m 11,8 C 15,2 C 11,3 km/h (2 Bft)
23.10.2022 12:12 15,2 C 15,0 C 80 % 1012,6 hPa 0,0 l/m 9,0 km/h (2 Bft) SO 145 0 min 0,0 UV-I 66 W/m 11,8 C 13,8 C 14,5 km/h (3 Bft)
23.10.2022 12:15 15,1 C 15,0 C 80 % 1012,7 hPa 0,0 l/m 8,8 km/h (2 Bft) SO 140 0 min 0,0 UV-I 71 W/m 11,7 C 13,8 C 14,5 km/h (3 Bft)
23.10.2022 12:18 15,2 C 15,0 C 80 % 1012,8 hPa 0,0 l/m 9,6 km/h (2 Bft) S-SW 193 0 min 0,5 UV-I 89 W/m 11,8 C 13,5 C 14,5 km/h (3 Bft)
23.10.2022 12:21 15,2 C 15,0 C 80 % 1012,8 hPa 0,0 l/m 8,3 km/h (2 Bft) SW 214 0 min 0,7 UV-I 120 W/m 11,8 C 14,2 C 14,5 km/h (3 Bft)
23.10.2022 12:24 15,2 C 15,6 C 80 % 1012,7 hPa 0,0 l/m 9,2 km/h (2 Bft) S-SW 205 0 min 0,9 UV-I 170 W/m 11,8 C 13,7 C 16,1 km/h (3 Bft)
23.10.2022 12:27 15,3 C 16,1 C 81 % 1012,8 hPa 0,0 l/m 11,7 km/h (2 Bft) S 190 0 min 1,1 UV-I 222 W/m 12,1 C 12,7 C 17,7 km/h (3 Bft)
23.10.2022 12:30 15,3 C 16,1 C 80 % 1012,8 hPa 0,0 l/m 11,4 km/h (2 Bft) S-SW 196 0 min 1,2 UV-I 226 W/m 11,9 C 12,9 C 20,9 km/h (4 Bft)
23.10.2022 12:33 15,3 C 16,1 C 80 % 1012,8 hPa 0,0 l/m 9,9 km/h (2 Bft) S-SW 196 0 min 1,2 UV-I 204 W/m 11,9 C 13,5 C 22,5 km/h (4 Bft)
23.10.2022 12:36 15,4 C 16,1 C 80 % 1012,6 hPa 0,0 l/m 9,2 km/h (2 Bft) S 170 0 min 1,1 UV-I 205 W/m 12,0 C 13,9 C 14,5 km/h (3 Bft)
23.10.2022 12:39 15,5 C 16,7 C 81 % 1012,6 hPa 0,0 l/m 6,5 km/h (2 Bft) S-SW 198 0 min 1,2 UV-I 232 W/m 12,3 C 15,5 C 16,1 km/h (3 Bft)
23.10.2022 12:42 15,6 C 17,8 C 80 % 1012,6 hPa 0,0 l/m 12,0 km/h (2 Bft) S-SW 194 3 min 1,5 UV-I 328 W/m 12,2 C 13,0 C 19,3 km/h (3 Bft)
23.10.2022 12:45 15,8 C 18,3 C 79 % 1012,5 hPa 0,0 l/m 10,2 km/h (2 Bft) S-SW 213 3 min 1,6 UV-I 351 W/m 12,2 C 13,9 C 20,9 km/h (4 Bft)
23.10.2022 12:48 15,9 C 18,9 C 79 % 1012,6 hPa 0,0 l/m 10,8 km/h (2 Bft) S-SW 200 3 min 1,7 UV-I 367 W/m 12,3 C 13,8 C 19,3 km/h (3 Bft)
23.10.2022 12:51 16,0 C 18,9 C 79 % 1012,6 hPa 0,0 l/m 14,9 km/h (3 Bft) S 182 3 min 1,7 UV-I 351 W/m 12,4 C 12,4 C 22,5 km/h (4 Bft)
23.10.2022 12:54 16,0 C 18,3 C 79 % 1012,5 hPa 0,0 l/m 14,4 km/h (3 Bft) SW 215 3 min 1,6 UV-I 311 W/m 12,4 C 12,6 C 24,1 km/h (4 Bft)
23.10.2022 12:57 16,2 C 18,9 C 79 % 1012,6 hPa 0,0 l/m 10,3 km/h (2 Bft) S 169 3 min 1,7 UV-I 355 W/m 12,6 C 14,3 C 16,1 km/h (3 Bft)
23.10.2022 13:00 16,3 C 19,4 C 79 % 1012,5 hPa 0,0 l/m 13,4 km/h (3 Bft) S 185 3 min 1,8 UV-I 391 W/m 12,6 C 13,3 C 24,1 km/h (4 Bft)
23.10.2022 13:03 16,3 C 20,0 C 78 % 1012,5 hPa 0,0 l/m 14,0 km/h (3 Bft) S 178 3 min 1,8 UV-I 377 W/m 12,5 C 13,1 C 25,7 km/h (4 Bft)
23.10.2022 13:06 16,3 C 19,4 C 78 % 1012,4 hPa 0,0 l/m 15,8 km/h (3 Bft) SO 138 3 min 1,7 UV-I 338 W/m 12,5 C 12,5 C 27,4 km/h (4 Bft)
23.10.2022 13:09 16,4 C 19,4 C 78 % 1012,3 hPa 0,0 l/m 13,5 km/h (3 Bft) S-SO 159 3 min 1,7 UV-I 335 W/m 12,6 C 13,4 C 20,9 km/h (4 Bft)
23.10.2022 13:12 16,4 C 19,4 C 78 % 1012,4 hPa 0,0 l/m 12,4 km/h (3 Bft) S 185 3 min 1,7 UV-I 324 W/m 12,6 C 13,7 C 17,7 km/h (3 Bft)
23.10.2022 13:15 16,4 C 19,4 C 78 % 1012,5 hPa 0,0 l/m 12,4 km/h (3 Bft) S 187 3 min 1,7 UV-I 334 W/m 12,6 C 13,7 C 22,5 km/h (4 Bft)
23.10.2022 13:18 16,6 C 20,0 C 78 % 1012,5 hPa 0,0 l/m 12,9 km/h (3 Bft) S-SW 192 3 min 1,8 UV-I 352 W/m 12,7 C 13,8 C 22,5 km/h (4 Bft)
23.10.2022 13:21 16,6 C 20,0 C 78 % 1012,5 hPa 0,0 l/m 11,3 km/h (2 Bft) O-SO 122 3 min 1,7 UV-I 339 W/m 12,7 C 14,4 C 22,5 km/h (4 Bft)
23.10.2022 13:24 16,6 C 20,0 C 78 % 1012,4 hPa 0,0 l/m 15,4 km/h (3 Bft) S 188 3 min 1,8 UV-I 348 W/m 12,7 C 13,0 C 24,1 km/h (4 Bft)
23.10.2022 13:27 16,5 C 20,0 C 78 % 1012,3 hPa 0,0 l/m 14,1 km/h (3 Bft) S-SO 159 3 min 1,7 UV-I 323 W/m 12,6 C 13,3 C 22,5 km/h (4 Bft)
23.10.2022 13:30 16,4 C 19,4 C 78 % 1012,4 hPa 0,0 l/m 9,7 km/h (2 Bft) S 170 0 min 1,6 UV-I 286 W/m 12,6 C 14,8 C 14,5 km/h (3 Bft)
23.10.2022 13:33 16,4 C 19,4 C 78 % 1012,4 hPa 0,0 l/m 14,0 km/h (3 Bft) S 190 3 min 1,6 UV-I 307 W/m 12,6 C 13,2 C 19,3 km/h (3 Bft)
23.10.2022 13:36 16,4 C 19,4 C 78 % 1012,4 hPa 0,0 l/m 12,5 km/h (3 Bft) SO 138 3 min 1,6 UV-I 305 W/m 12,6 C 13,7 C 20,9 km/h (4 Bft)
23.10.2022 13:39 16,5 C 19,4 C 79 % 1012,3 hPa 0,0 l/m 10,0 km/h (2 Bft) SO 132 0 min 1,6 UV-I 290 W/m 12,8 C 14,8 C 17,7 km/h (3 Bft)
23.10.2022 13:42 16,5 C 19,4 C 78 % 1012,2 hPa 0,0 l/m 10,7 km/h (2 Bft) SO 136 0 min 1,5 UV-I 291 W/m 12,6 C 14,5 C 14,5 km/h (3 Bft)
23.10.2022 13:45 16,5 C 19,4 C 78 % 1012,1 hPa 0,0 l/m 12,1 km/h (2 Bft) SO 136 0 min 1,6 UV-I 292 W/m 12,6 C 14,0 C 19,3 km/h (3 Bft)
23.10.2022 13:48 16,6 C 19,4 C 78 % 1012,0 hPa 0,0 l/m 9,4 km/h (2 Bft) S-SO 156 3 min 1,7 UV-I 342 W/m 12,7 C 15,1 C 16,1 km/h (3 Bft)
23.10.2022 13:51 16,6 C 18,9 C 77 % 1012,0 hPa 0,0 l/m 15,0 km/h (3 Bft) S-SO 156 3 min 1,6 UV-I 312 W/m 12,5 C 13,1 C 24,1 km/h (4 Bft)
23.10.2022 13:54 16,6 C 19,4 C 78 % 1012,0 hPa 0,0 l/m 12,3 km/h (3 Bft) S-SO 148 3 min 1,6 UV-I 308 W/m 12,7 C 14,0 C 19,3 km/h (3 Bft)
23.10.2022 13:57 16,7 C 18,9 C 78 % 1012,0 hPa 0,0 l/m 13,4 km/h (3 Bft) SO 134 0 min 1,5 UV-I 292 W/m 12,8 C 13,8 C 22,5 km/h (4 Bft)
23.10.2022 14:00 16,6 C 18,9 C 78 % 1011,9 hPa 0,0 l/m 9,6 km/h (2 Bft) S 190 0 min 1,4 UV-I 260 W/m 12,7 C 15,1 C 17,7 km/h (3 Bft)
23.10.2022 14:03 16,6 C 18,9 C 78 % 1012,0 hPa 0,0 l/m 7,3 km/h (2 Bft) SO 142 0 min 1,4 UV-I 252 W/m 12,7 C 16,1 C 12,9 km/h (3 Bft)
23.10.2022 14:06 16,6 C 18,3 C 78 % 1012,0 hPa 0,0 l/m 11,7 km/h (2 Bft) S 189 0 min 1,3 UV-I 238 W/m 12,7 C 14,2 C 22,5 km/h (4 Bft)
23.10.2022 14:09 16,6 C 18,3 C 78 % 1012,0 hPa 0,0 l/m 10,1 km/h (2 Bft) S 188 0 min 1,3 UV-I 246 W/m 12,7 C 14,8 C 19,3 km/h (3 Bft)
23.10.2022 14:12 16,4 C 18,3 C 78 % 1012,0 hPa 0,0 l/m 14,8 km/h (3 Bft) S-SO 157 0 min 1,3 UV-I 255 W/m 12,6 C 12,9 C 25,7 km/h (4 Bft)
23.10.2022 14:15 16,4 C 18,3 C 78 % 1011,9 hPa 0,0 l/m 11,6 km/h (2 Bft) S 191 0 min 1,3 UV-I 258 W/m 12,6 C 14,0 C 20,9 km/h (4 Bft)
23.10.2022 14:18 16,3 C 17,8 C 79 % 1011,8 hPa 0,0 l/m 13,3 km/h (3 Bft) S-SO 162 0 min 1,3 UV-I 250 W/m 12,6 C 13,3 C 22,5 km/h (4 Bft)
23.10.2022 14:21 16,4 C 18,3 C 79 % 1011,7 hPa 0,0 l/m 12,8 km/h (3 Bft) SO 144 0 min 1,3 UV-I 255 W/m 12,7 C 13,6 C 20,9 km/h (4 Bft)
23.10.2022 14:24 16,4 C 18,3 C 80 % 1011,6 hPa 0,0 l/m 10,3 km/h (2 Bft) S-SO 147 0 min 1,4 UV-I 279 W/m 12,9 C 14,5 C 16,1 km/h (3 Bft)
23.10.2022 14:27 16,3 C 18,9 C 79 % 1011,6 hPa 0,0 l/m 11,6 km/h (2 Bft) SO 136 0 min 1,4 UV-I 287 W/m 12,6 C 13,9 C 22,5 km/h (4 Bft)
23.10.2022 14:30 16,6 C 19,4 C 80 % 1011,6 hPa 0,0 l/m 8,2 km/h (2 Bft) SO 144 3 min 1,5 UV-I 332 W/m 13,1 C 15,7 C 16,1 km/h (3 Bft)
23.10.2022 14:33 16,6 C 20,0 C 78 % 1011,5 hPa 0,0 l/m 12,8 km/h (3 Bft) S-SO 153 3 min 1,5 UV-I 341 W/m 12,7 C 13,8 C 19,3 km/h (3 Bft)
23.10.2022 14:36 16,6 C 20,0 C 79 % 1011,5 hPa 0,0 l/m 11,0 km/h (2 Bft) SO 136 3 min 1,5 UV-I 330 W/m 12,9 C 14,5 C 19,3 km/h (3 Bft)
23.10.2022 14:39 16,6 C 18,9 C 78 % 1011,4 hPa 0,0 l/m 10,5 km/h (2 Bft) S 180 0 min 1,3 UV-I 259 W/m 12,7 C 14,7 C 19,3 km/h (3 Bft)
23.10.2022 14:42 16,5 C 18,3 C 79 % 1011,2 hPa 0,0 l/m 15,0 km/h (3 Bft) O-SO 121 0 min 1,2 UV-I 222 W/m 12,8 C 13,0 C 24,1 km/h (4 Bft)
23.10.2022 14:45 16,4 C 17,8 C 79 % 1011,1 hPa 0,0 l/m 12,5 km/h (3 Bft) S 190 0 min 1,2 UV-I 235 W/m 12,7 C 13,7 C 19,3 km/h (3 Bft)
23.10.2022 14:48 16,5 C 18,3 C 79 % 1011,2 hPa 0,0 l/m 11,8 km/h (2 Bft) S 175 0 min 1,3 UV-I 257 W/m 12,8 C 14,1 C 24,1 km/h (4 Bft)
23.10.2022 14:51 16,6 C 18,3 C 79 % 1011,2 hPa 0,0 l/m 13,8 km/h (3 Bft) S-SO 157 0 min 1,3 UV-I 271 W/m 12,9 C 13,5 C 24,1 km/h (4 Bft)
23.10.2022 14:54 16,6 C 18,9 C 79 % 1011,0 hPa 0,0 l/m 10,1 km/h (2 Bft) S-SO 148 0 min 1,3 UV-I 272 W/m 12,9 C 14,8 C 17,7 km/h (3 Bft)
23.10.2022 14:57 16,7 C 19,4 C 80 % 1011,0 hPa 0,0 l/m 8,5 km/h (2 Bft) SO 126 0 min 1,3 UV-I 268 W/m 13,2 C 15,6 C 14,5 km/h (3 Bft)
23.10.2022 15:00 16,8 C 18,9 C 79 % 1010,9 hPa 0,0 l/m 9,2 km/h (2 Bft) SO 145 0 min 1,2 UV-I 248 W/m 13,1 C 15,4 C 17,7 km/h (3 Bft)
23.10.2022 15:03 16,7 C 18,3 C 79 % 1011,0 hPa 0,0 l/m 14,3 km/h (3 Bft) O-SO 116 0 min 1,2 UV-I 228 W/m 13,0 C 13,5 C 20,9 km/h (4 Bft)
23.10.2022 15:06 16,7 C 18,3 C 80 % 1011,0 hPa 0,0 l/m 9,5 km/h (2 Bft) S 173 0 min 1,2 UV-I 236 W/m 13,2 C 15,2 C 20,9 km/h (4 Bft)
23.10.2022 15:09 16,7 C 18,9 C 80 % 1011,0 hPa 0,0 l/m 11,8 km/h (2 Bft) SO 130 0 min 1,2 UV-I 244 W/m 13,2 C 14,3 C 19,3 km/h (3 Bft)
23.10.2022 15:12 16,7 C 18,9 C 80 % 1010,9 hPa 0,0 l/m 12,1 km/h (2 Bft) S-SO 151 0 min 1,2 UV-I 239 W/m 13,2 C 14,2 C 20,9 km/h (4 Bft)
23.10.2022 15:15 16,7 C 18,3 C 80 % 1010,9 hPa 0,0 l/m 7,3 km/h (2 Bft) S 177 0 min 1,1 UV-I 227 W/m 13,2 C 16,2 C 14,5 km/h (3 Bft)
23.10.2022 15:18 16,8 C 18,3 C 80 % 1010,8 hPa 0,0 l/m 8,2 km/h (2 Bft) S-SO 168 0 min 1,0 UV-I 201 W/m 13,3 C 15,9 C 16,1 km/h (3 Bft)
23.10.2022 15:21 16,8 C 18,3 C 80 % 1010,8 hPa 0,0 l/m 9,8 km/h (2 Bft) S 175 0 min 1,0 UV-I 188 W/m 13,3 C 15,2 C 16,1 km/h (3 Bft)
23.10.2022 15:24 16,7 C 18,3 C 80 % 1010,7 hPa 0,0 l/m 9,6 km/h (2 Bft) S 190 0 min 0,9 UV-I 186 W/m 13,2 C 15,2 C 19,3 km/h (3 Bft)
23.10.2022 15:27 16,7 C 17,8 C 80 % 1010,8 hPa 0,0 l/m 12,4 km/h (3 Bft) S-SO 168 0 min 0,9 UV-I 174 W/m 13,2 C 14,1 C 19,3 km/h (3 Bft)
23.10.2022 15:30 16,7 C 17,2 C 80 % 1010,7 hPa 0,0 l/m 11,9 km/h (2 Bft) S-SO 162 0 min 0,9 UV-I 169 W/m 13,2 C 14,3 C 17,7 km/h (3 Bft)
23.10.2022 15:33 16,7 C 17,2 C 80 % 1010,8 hPa 0,0 l/m 8,2 km/h (2 Bft) S-SO 157 0 min 0,8 UV-I 164 W/m 13,2 C 15,8 C 12,9 km/h (3 Bft)
23.10.2022 15:36 16,7 C 17,2 C 80 % 1010,6 hPa 0,0 l/m 11,4 km/h (2 Bft) S-SO 157 0 min 0,8 UV-I 175 W/m 13,2 C 14,4 C 17,7 km/h (3 Bft)
23.10.2022 15:39 16,7 C 17,8 C 80 % 1010,6 hPa 0,0 l/m 8,6 km/h (2 Bft) S 172 0 min 0,8 UV-I 175 W/m 13,2 C 15,6 C 16,1 km/h (3 Bft)
23.10.2022 15:42 16,7 C 17,2 C 80 % 1010,5 hPa 0,0 l/m 7,8 km/h (2 Bft) O-SO 119 0 min 0,8 UV-I 168 W/m 13,2 C 16,0 C 14,5 km/h (3 Bft)
23.10.2022 15:45 16,7 C 17,2 C 81 % 1010,5 hPa 0,0 l/m 6,4 km/h (2 Bft) SO 145 0 min 0,8 UV-I 154 W/m 13,4 C 16,7 C 14,5 km/h (3 Bft)
23.10.2022 15:48 16,7 C 17,2 C 81 % 1010,5 hPa 0,0 l/m 5,2 km/h (1 Bft) S-SO 159 0 min 0,7 UV-I 144 W/m 13,4 C 16,7 C 11,3 km/h (2 Bft)
23.10.2022 15:51 16,8 C 17,8 C 81 % 1010,3 hPa 0,0 l/m 5,3 km/h (1 Bft) SO 133 0 min 0,7 UV-I 145 W/m 13,5 C 16,8 C 9,7 km/h (2 Bft)
23.10.2022 15:54 16,9 C 18,3 C 81 % 1010,5 hPa 0,0 l/m 5,9 km/h (2 Bft) SO 144 0 min 0,7 UV-I 166 W/m 13,6 C 16,9 C 12,9 km/h (3 Bft)
23.10.2022 15:57 16,9 C 17,8 C 80 % 1010,6 hPa 0,0 l/m 10,5 km/h (2 Bft) O-SO 112 0 min 0,7 UV-I 159 W/m 13,4 C 15,0 C 17,7 km/h (3 Bft)
23.10.2022 16:00 16,9 C 17,2 C 80 % 1010,4 hPa 0,0 l/m 10,1 km/h (2 Bft) S-SO 161 0 min 0,7 UV-I 143 W/m 13,4 C 15,2 C 17,7 km/h (3 Bft)
23.10.2022 16:03 16,9 C 17,2 C 80 % 1010,5 hPa 0,0 l/m 14,0 km/h (3 Bft) SO 130 0 min 0,6 UV-I 131 W/m 13,4 C 13,8 C 25,7 km/h (4 Bft)
23.10.2022 16:06 16,9 C 17,2 C 81 % 1010,3 hPa 0,0 l/m 7,8 km/h (2 Bft) S-SO 163 0 min 0,6 UV-I 133 W/m 13,6 C 16,2 C 14,5 km/h (3 Bft)
23.10.2022 16:09 16,8 C 17,2 C 81 % 1010,2 hPa 0,0 l/m 10,4 km/h (2 Bft) S-SW 201 0 min 0,6 UV-I 129 W/m 13,5 C 14,9 C 20,9 km/h (4 Bft)
23.10.2022 16:12 16,8 C 17,2 C 81 % 1010,3 hPa 0,0 l/m 7,5 km/h (2 Bft) SO 145 0 min 0,6 UV-I 122 W/m 13,5 C 16,2 C 19,3 km/h (3 Bft)
23.10.2022 16:15 16,8 C 17,2 C 81 % 1010,3 hPa 0,0 l/m 11,9 km/h (2 Bft) SO 144 0 min 0,6 UV-I 127 W/m 13,5 C 14,4 C 20,9 km/h (4 Bft)
23.10.2022 16:18 16,8 C 17,2 C 81 % 1010,3 hPa 0,0 l/m 12,9 km/h (3 Bft) SO 140 0 min 0,6 UV-I 125 W/m 13,5 C 14,0 C 19,3 km/h (3 Bft)
23.10.2022 16:21 16,8 C 17,2 C 81 % 1010,4 hPa 0,0 l/m 12,5 km/h (3 Bft) SO 142 0 min 0,6 UV-I 126 W/m 13,5 C 14,2 C 22,5 km/h (4 Bft)
23.10.2022 16:24 16,8 C 16,7 C 81 % 1010,4 hPa 0,0 l/m 12,0 km/h (2 Bft) S-SO 163 0 min 0,5 UV-I 122 W/m 13,5 C 14,3 C 17,7 km/h (3 Bft)
23.10.2022 16:27 16,8 C 17,2 C 81 % 1010,5 hPa 0,0 l/m 11,1 km/h (2 Bft) S-SO 159 0 min 0,5 UV-I 122 W/m 13,5 C 14,7 C 17,7 km/h (3 Bft)
23.10.2022 16:30 16,8 C 17,2 C 81 % 1010,4 hPa 0,0 l/m 10,3 km/h (2 Bft) S-SW 200 0 min 0,5 UV-I 130 W/m 13,5 C 15,0 C 17,7 km/h (3 Bft)
23.10.2022 16:33 16,8 C 16,7 C 81 % 1010,6 hPa 0,0 l/m 10,1 km/h (2 Bft) S 175 0 min 0,5 UV-I 118 W/m 13,5 C 15,1 C 17,7 km/h (3 Bft)
23.10.2022 16:36 16,8 C 16,7 C 81 % 1010,5 hPa 0,0 l/m 8,9 km/h (2 Bft) SO 138 0 min 0,5 UV-I 111 W/m 13,5 C 15,6 C 16,1 km/h (3 Bft)
23.10.2022 16:39 16,8 C 16,7 C 81 % 1010,6 hPa 0,0 l/m 8,1 km/h (2 Bft) S-SW 192 0 min 0,4 UV-I 108 W/m 13,5 C 15,9 C 12,9 km/h (3 Bft)
23.10.2022 16:42 16,8 C 16,7 C 81 % 1010,5 hPa 0,0 l/m 7,7 km/h (2 Bft) O-SO 118 0 min 0,2 UV-I 109 W/m 13,5 C 16,1 C 11,3 km/h (2 Bft)
23.10.2022 16:45 16,8 C 16,7 C 82 % 1010,1 hPa 0,0 l/m 10,6 km/h (2 Bft) SO 126 0 min 0,5 UV-I 112 W/m 13,7 C 14,9 C 17,7 km/h (3 Bft)
23.10.2022 16:48 16,7 C 16,7 C 82 % 1010,4 hPa 0,0 l/m 9,5 km/h (2 Bft) S 180 0 min 0,1 UV-I 102 W/m 13,6 C 15,2 C 17,7 km/h (3 Bft)
23.10.2022 16:51 16,7 C 16,7 C 82 % 1010,5 hPa 0,0 l/m 8,8 km/h (2 Bft) S 190 0 min 0,0 UV-I 88 W/m 13,6 C 15,5 C 12,9 km/h (3 Bft)
23.10.2022 16:54 16,8 C 16,7 C 82 % 1010,3 hPa 0,0 l/m 4,1 km/h (1 Bft) S 182 0 min 0,0 UV-I 101 W/m 13,7 C 16,8 C 6,4 km/h (2 Bft)
23.10.2022 16:57 16,8 C 17,2 C 82 % 1010,3 hPa 0,0 l/m 4,0 km/h (1 Bft) S-SO 163 0 min 0,0 UV-I 109 W/m 13,7 C 16,8 C 8,0 km/h (2 Bft)
23.10.2022 17:00 16,8 C 17,2 C 82 % 1010,2 hPa 0,0 l/m 2,7 km/h (1 Bft) SW 225 0 min 0,0 UV-I 104 W/m 13,7 C 16,8 C 8,0 km/h (2 Bft)
23.10.2022 17:03 16,8 C 17,2 C 82 % 1010,0 hPa 0,0 l/m 4,4 km/h (1 Bft) SO 128 0 min 0,0 UV-I 96 W/m 13,7 C 16,8 C 9,7 km/h (2 Bft)
23.10.2022 17:06 16,8 C 17,2 C 82 % 1010,0 hPa 0,0 l/m 5,2 km/h (1 Bft) S-SO 153 0 min 0,0 UV-I 87 W/m 13,7 C 16,8 C 12,9 km/h (3 Bft)
23.10.2022 17:09 16,8 C 16,7 C 82 % 1009,9 hPa 0,0 l/m 3,2 km/h (1 Bft) SO 130 0 min 0,0 UV-I 77 W/m 13,7 C 16,8 C 8,0 km/h (2 Bft)
23.10.2022 17:12 16,7 C 16,7 C 82 % 1009,8 hPa 0,0 l/m 2,0 km/h (1 Bft) SO 142 0 min 0,0 UV-I 70 W/m 13,6 C 16,7 C 4,8 km/h (1 Bft)
23.10.2022 17:15 16,7 C 16,1 C 82 % 1009,5 hPa 0,0 l/m 1,7 km/h (1 Bft) SW 215 0 min 0,0 UV-I 67 W/m 13,6 C 16,7 C 4,8 km/h (1 Bft)
23.10.2022 17:18 16,7 C 16,1 C 83 % 1009,6 hPa 0,0 l/m 1,7 km/h (1 Bft) W-SW 254 0 min 0,0 UV-I 63 W/m 13,8 C 16,7 C 4,8 km/h (1 Bft)
23.10.2022 17:21 16,6 C 16,1 C 83 % 1009,7 hPa 0,0 l/m 2,7 km/h (1 Bft) S-SW 206 0 min 0,0 UV-I 55 W/m 13,7 C 16,6 C 6,4 km/h (2 Bft)
23.10.2022 17:24 16,6 C 16,1 C 83 % 1009,7 hPa 0,0 l/m 2,7 km/h (1 Bft) S-SW 205 0 min 0,0 UV-I 41 W/m 13,7 C 16,6 C 8,0 km/h (2 Bft)
23.10.2022 17:27 16,6 C 16,1 C 83 % 1009,6 hPa 0,0 l/m 6,7 km/h (2 Bft) S-SW 200 0 min 0,0 UV-I 31 W/m 13,7 C 16,5 C 14,5 km/h (3 Bft)
23.10.2022 17:30 16,7 C 16,1 C 83 % 1009,6 hPa 0,0 l/m 5,3 km/h (1 Bft) S-SO 163 0 min 0,0 UV-I 25 W/m 13,8 C 16,7 C 9,7 km/h (2 Bft)
23.10.2022 17:33 16,7 C 16,1 C 83 % 1009,8 hPa 0,0 l/m 8,1 km/h (2 Bft) O-SO 119 0 min 0,0 UV-I 17 W/m 13,8 C 15,8 C 14,5 km/h (3 Bft)
23.10.2022 17:36 16,7 C 15,6 C 83 % 1009,7 hPa 0,0 l/m 7,2 km/h (2 Bft) O-SO 118 0 min 0,0 UV-I 12 W/m 13,8 C 16,3 C 11,3 km/h (2 Bft)
23.10.2022 17:39 16,6 C 15,6 C 83 % 1009,7 hPa 0,0 l/m 6,1 km/h (2 Bft) SO 145 0 min 0,0 UV-I 8 W/m 13,7 C 16,6 C 11,3 km/h (2 Bft)
23.10.2022 17:42 16,6 C 15,6 C 83 % 1009,6 hPa 0,0 l/m 7,5 km/h (2 Bft) SO 138 0 min 0,0 UV-I 2 W/m 13,7 C 16,0 C 14,5 km/h (3 Bft)
23.10.2022 17:43 16,6 C 15,6 C 83 % 1009,6 hPa 0,0 l/m 11,3 km/h (2 Bft) SO 135 0 min 0,0 UV-I 0 W/m 13,7 C 14,4 C 16,1 km/h (3 Bft)
23.10.2022 17:44 16,6 C 15,6 C 83 % 1009,7 hPa 0,0 l/m 11,3 km/h (2 Bft) SO 135 0 min 0,0 UV-I 0 W/m 13,7 C 14,4 C 14,5 km/h (3 Bft)
23.10.2022 17:45 16,6 C 15,6 C 83 % 1009,7 hPa 0,0 l/m 9,7 km/h (2 Bft) SO 135 0 min 0,0 UV-I 0 W/m 13,7 C 15,0 C 14,5 km/h (3 Bft)
23.10.2022 17:46 16,6 C 15,6 C 83 % 1009,7 hPa 0,0 l/m 8,0 km/h (2 Bft) O-SO 112 0 min 0,0 UV-I 0 W/m 13,7 C 15,8 C 11,3 km/h (2 Bft)
23.10.2022 17:48 16,7 C 15,6 C 83 % 1009,7 hPa 0,2 l/m 7,2 km/h (2 Bft) S-SO 160 0 min 0,0 UV-I 0 W/m 13,8 C 16,3 C 9,7 km/h (2 Bft)
23.10.2022 17:51 16,6 C 15,6 C 83 % 1009,8 hPa 0,0 l/m 6,7 km/h (2 Bft) S 182 0 min 0,0 UV-I 0 W/m 13,7 C 16,5 C 11,3 km/h (2 Bft)
23.10.2022 17:54 16,4 C 15,0 C 84 % 1009,7 hPa 0,2 l/m 7,6 km/h (2 Bft) S 172 0 min 0,0 UV-I 0 W/m 13,7 C 15,8 C 11,3 km/h (2 Bft)
23.10.2022 17:57 16,3 C 15,0 C 85 % 1009,8 hPa 0,0 l/m 6,1 km/h (2 Bft) S-SW 194 0 min 0,0 UV-I 0 W/m 13,8 C 16,3 C 9,7 km/h (2 Bft)
23.10.2022 18:00 16,2 C 14,4 C 85 % 1009,8 hPa 0,0 l/m 4,3 km/h (1 Bft) S-SW 213 0 min 0,0 UV-I 0 W/m 13,7 C 16,2 C 6,4 km/h (2 Bft)
23.10.2022 18:03 16,0 C 14,4 C 86 % 1009,7 hPa 0,2 l/m 2,8 km/h (1 Bft) S-SW 204 0 min 0,0 UV-I 0 W/m 13,7 C 16,0 C 6,4 km/h (2 Bft)
23.10.2022 18:06 16,0 C 14,4 C 86 % 1009,8 hPa 0,0 l/m 4,4 km/h (1 Bft) S-SW 194 0 min 0,0 UV-I 0 W/m 13,7 C 16,0 C 6,4 km/h (2 Bft)
23.10.2022 18:09 15,9 C 14,4 C 87 % 1010,0 hPa 0,2 l/m 6,3 km/h (2 Bft) S-SW 202 0 min 0,0 UV-I 0 W/m 13,7 C 15,9 C 11,3 km/h (2 Bft)
23.10.2022 18:12 15,7 C 14,4 C 88 % 1011,5 hPa 0,2 l/m 19,8 km/h (3 Bft) S 180 0 min 0,0 UV-I 0 W/m 13,7 C 10,7 C 32,2 km/h (5 Bft)
23.10.2022 18:15 14,8 C 12,8 C 86 % 1010,4 hPa 0,8 l/m 21,7 km/h (4 Bft) SW 224 0 min 0,0 UV-I 0 W/m 12,5 C 9,1 C 43,5 km/h (6 Bft)
23.10.2022 18:18 14,2 C 12,8 C 87 % 1010,4 hPa 0,6 l/m 12,2 km/h (2 Bft) SO 142 0 min 0,0 UV-I 0 W/m 12,1 C 11,3 C 24,1 km/h (4 Bft)
23.10.2022 18:21 13,4 C 11,7 C 86 % 1011,0 hPa 0,8 l/m 14,7 km/h (3 Bft) SO 141 0 min 0,0 UV-I 0 W/m 11,1 C 9,4 C 22,5 km/h (4 Bft)
23.10.2022 18:24 12,8 C 11,1 C 87 % 1010,5 hPa 0,6 l/m 12,2 km/h (2 Bft) SO 124 0 min 0,0 UV-I 4 W/m 10,7 C 9,7 C 24,1 km/h (4 Bft)
23.10.2022 18:27 12,4 C 11,1 C 88 % 1010,2 hPa 0,6 l/m 10,9 km/h (2 Bft) O 98 0 min 0,0 UV-I 8 W/m 10,5 C 9,8 C 16,1 km/h (3 Bft)
23.10.2022 18:30 12,2 C 11,1 C 88 % 1010,4 hPa 0,6 l/m 12,1 km/h (2 Bft) O-SO 114 0 min 0,0 UV-I 5 W/m 10,3 C 9,0 C 17,7 km/h (3 Bft)
23.10.2022 18:33 11,9 C 11,1 C 89 % 1010,0 hPa 0,6 l/m 12,7 km/h (3 Bft) O-SO 123 0 min 0,0 UV-I 0 W/m 10,1 C 8,4 C 17,7 km/h (3 Bft)
23.10.2022 18:36 11,9 C 11,1 C 90 % 1009,8 hPa 0,6 l/m 10,6 km/h (2 Bft) O-SO 116 0 min 0,0 UV-I 0 W/m 10,3 C 9,4 C 19,3 km/h (3 Bft)
23.10.2022 18:39 12,1 C 11,1 C 90 % 1010,2 hPa 0,4 l/m 8,5 km/h (2 Bft) SW 219 0 min 0,0 UV-I 0 W/m 10,5 C 10,8 C 14,5 km/h (3 Bft)
23.10.2022 18:42 12,2 C 11,1 C 90 % 1010,6 hPa 0,6 l/m 8,8 km/h (2 Bft) S 169 0 min 0,0 UV-I 0 W/m 10,6 C 10,7 C 16,1 km/h (3 Bft)
23.10.2022 18:45 12,4 C 11,7 C 90 % 1010,2 hPa 0,4 l/m 11,9 km/h (2 Bft) S 175 0 min 0,0 UV-I 0 W/m 10,8 C 9,3 C 24,1 km/h (4 Bft)
23.10.2022 18:48 12,6 C 11,7 C 91 % 1010,0 hPa 0,4 l/m 13,1 km/h (3 Bft) S 180 0 min 0,0 UV-I 0 W/m 11,2 C 9,0 C 22,5 km/h (4 Bft)
23.10.2022 18:51 12,7 C 11,7 C 90 % 1010,0 hPa 0,4 l/m 9,4 km/h (2 Bft) S-SO 160 0 min 0,0 UV-I 0 W/m 11,1 C 10,9 C 17,7 km/h (3 Bft)
23.10.2022 18:54 12,7 C 11,7 C 90 % 1009,8 hPa 0,4 l/m 9,3 km/h (2 Bft) S-SW 202 0 min 0,0 UV-I 0 W/m 11,1 C 10,9 C 14,5 km/h (3 Bft)
23.10.2022 18:57 12,7 C 11,7 C 90 % 1009,6 hPa 0,4 l/m 7,6 km/h (2 Bft) S 178 0 min 0,0 UV-I 0 W/m 11,1 C 11,9 C 17,7 km/h (3 Bft)
23.10.2022 19:00 12,8 C 11,7 C 90 % 1009,7 hPa 0,2 l/m 8,0 km/h (2 Bft) S-SO 150 0 min 0,0 UV-I 0 W/m 11,2 C 11,8 C 14,5 km/h (3 Bft)
23.10.2022 19:03 12,8 C 11,7 C 90 % 1009,7 hPa 0,2 l/m 6,5 km/h (2 Bft) S 190 0 min 0,0 UV-I 0 W/m 11,2 C 12,8 C 11,3 km/h (2 Bft)
23.10.2022 19:06 12,9 C 11,7 C 90 % 1009,6 hPa 0,4 l/m 7,1 km/h (2 Bft) S-SW 205 0 min 0,0 UV-I 0 W/m 11,3 C 12,5 C 17,7 km/h (3 Bft)
23.10.2022 19:09 12,9 C 11,7 C 90 % 1009,8 hPa 0,2 l/m 7,8 km/h (2 Bft) S-SO 168 0 min 0,0 UV-I 0 W/m 11,3 C 12,0 C 16,1 km/h (3 Bft)
23.10.2022 19:12 12,9 C 11,7 C 90 % 1009,8 hPa 0,2 l/m 4,8 km/h (1 Bft) SW 229 0 min 0,0 UV-I 0 W/m 11,3 C 12,9 C 8,0 km/h (2 Bft)
23.10.2022 19:15 12,9 C 11,7 C 90 % 1009,9 hPa 0,2 l/m 4,4 km/h (1 Bft) S-SW 193 0 min 0,0 UV-I 0 W/m 11,3 C 12,9 C 8,0 km/h (2 Bft)
23.10.2022 19:18 12,8 C 11,7 C 90 % 1009,9 hPa 0,2 l/m 5,1 km/h (1 Bft) S-SW 210 0 min 0,0 UV-I 0 W/m 11,2 C 12,8 C 9,7 km/h (2 Bft)
23.10.2022 19:21 12,8 C 11,7 C 90 % 1009,8 hPa 0,2 l/m 4,7 km/h (1 Bft) S-SW 202 0 min 0,0 UV-I 0 W/m 11,2 C 12,8 C 8,0 km/h (2 Bft)
23.10.2022 19:24 12,8 C 11,1 C 90 % 1009,9 hPa 0,0 l/m 4,5 km/h (1 Bft) S-SW 202 0 min 0,0 UV-I 0 W/m 11,2 C 12,8 C 6,4 km/h (2 Bft)
23.10.2022 19:27 12,8 C 11,1 C 90 % 1009,8 hPa 0,2 l/m 5,9 km/h (2 Bft) SW 219 0 min 0,0 UV-I 0 W/m 11,2 C 12,8 C 11,3 km/h (2 Bft)
23.10.2022 19:30 12,8 C 11,7 C 90 % 1009,8 hPa 0,0 l/m 4,2 km/h (1 Bft) S-SW 196 0 min 0,0 UV-I 0 W/m 11,2 C 12,8 C 8,0 km/h (2 Bft)
23.10.2022 19:33 12,8 C 11,1 C 90 % 1009,8 hPa 0,2 l/m 3,6 km/h (1 Bft) S-SW 207 0 min 0,0 UV-I 0 W/m 11,2 C 12,8 C 6,4 km/h (2 Bft)
23.10.2022 19:36 12,7 C 11,1 C 90 % 1009,8 hPa 0,0 l/m 2,2 km/h (1 Bft) S-SW 207 0 min 0,0 UV-I 0 W/m 11,1 C 12,7 C 4,8 km/h (1 Bft)
23.10.2022 19:39 12,7 C 11,1 C 90 % 1009,9 hPa 0,0 l/m 2,2 km/h (1 Bft) S-SW 207 0 min 0,0 UV-I 0 W/m 11,1 C 12,7 C 4,8 km/h (1 Bft)
23.10.2022 19:42 12,7 C 11,1 C 90 % 1009,9 hPa 0,0 l/m 2,8 km/h (1 Bft) S-SW 207 0 min 0,0 UV-I 0 W/m 11,1 C 12,7 C 4,8 km/h (1 Bft)
23.10.2022 19:45 12,6 C 11,1 C 90 % 1009,9 hPa 0,0 l/m 3,5 km/h (1 Bft) S-SW 207 0 min 0,0 UV-I 0 W/m 11,0 C 12,6 C 4,8 km/h (1 Bft)
23.10.2022 19:48 12,6 C 11,1 C 90 % 1009,9 hPa 0,0 l/m 5,1 km/h (1 Bft) S 173 0 min 0,0 UV-I 0 W/m 11,0 C 12,6 C 9,7 km/h (2 Bft)
23.10.2022 19:51 12,6 C 10,6 C 90 % 1009,9 hPa 0,0 l/m 3,6 km/h (1 Bft) S 183 0 min 0,0 UV-I 0 W/m 11,0 C 12,6 C 6,4 km/h (2 Bft)
23.10.2022 19:54 12,5 C 10,6 C 90 % 1009,9 hPa 0,0 l/m 7,7 km/h (2 Bft) S 169 0 min 0,0 UV-I 0 W/m 10,9 C 11,7 C 14,5 km/h (3 Bft)
23.10.2022 19:57 12,7 C 11,1 C 90 % 1009,8 hPa 0,0 l/m 7,7 km/h (2 Bft) S-SW 209 0 min 0,0 UV-I 0 W/m 11,1 C 11,9 C 16,1 km/h (3 Bft)
23.10.2022 20:00 12,7 C 11,1 C 90 % 1009,7 hPa 0,0 l/m 7,4 km/h (2 Bft) S-SO 165 0 min 0,0 UV-I 0 W/m 11,1 C 12,1 C 17,7 km/h (3 Bft)
23.10.2022 20:03 12,7 C 11,1 C 90 % 1009,9 hPa 0,0 l/m 6,7 km/h (2 Bft) S-SO 163 0 min 0,0 UV-I 0 W/m 11,1 C 12,5 C 9,7 km/h (2 Bft)
23.10.2022 20:06 12,6 C 10,6 C 90 % 1010,0 hPa 0,0 l/m 6,7 km/h (2 Bft) S 175 0 min 0,0 UV-I 0 W/m 11,0 C 12,4 C 12,9 km/h (3 Bft)
23.10.2022 20:09 12,4 C 10,6 C 90 % 1009,9 hPa 0,0 l/m 4,5 km/h (1 Bft) S 178 0 min 0,0 UV-I 0 W/m 10,8 C 12,4 C 8,0 km/h (2 Bft)
23.10.2022 20:12 12,4 C 10,6 C 90 % 1009,9 hPa 0,0 l/m 5,2 km/h (1 Bft) S-SW 211 0 min 0,0 UV-I 0 W/m 10,8 C 12,4 C 8,0 km/h (2 Bft)
23.10.2022 20:15 12,4 C 10,6 C 90 % 1009,9 hPa 0,0 l/m 4,2 km/h (1 Bft) SW 215 0 min 0,0 UV-I 0 W/m 10,8 C 12,4 C 6,4 km/h (2 Bft)
23.10.2022 20:18 12,5 C 10,6 C 90 % 1009,9 hPa 0,0 l/m 5,9 km/h (2 Bft) S 188 0 min 0,0 UV-I 0 W/m 10,9 C 12,5 C 11,3 km/h (2 Bft)
23.10.2022 20:21 12,4 C 10,6 C 90 % 1009,9 hPa 0,0 l/m 5,7 km/h (1 Bft) S 188 0 min 0,0 UV-I 0 W/m 10,8 C 12,4 C 8,0 km/h (2 Bft)
23.10.2022 20:24 12,6 C 10,6 C 91 % 1009,9 hPa 0,0 l/m 6,5 km/h (2 Bft) S 187 0 min 0,0 UV-I 0 W/m 11,2 C 12,6 C 11,3 km/h (2 Bft)
23.10.2022 20:27 12,7 C 11,1 C 91 % 1009,9 hPa 0,0 l/m 5,9 km/h (2 Bft) S 170 0 min 0,0 UV-I 0 W/m 11,3 C 12,7 C 9,7 km/h (2 Bft)
23.10.2022 20:30 12,9 C 11,7 C 91 % 1009,8 hPa 0,0 l/m 9,5 km/h (2 Bft) S-SO 159 0 min 0,0 UV-I 0 W/m 11,5 C 11,1 C 20,9 km/h (4 Bft)
23.10.2022 20:33 13,2 C 11,7 C 90 % 1009,8 hPa 0,0 l/m 9,0 km/h (2 Bft) S 180 0 min 0,0 UV-I 0 W/m 11,6 C 11,6 C 14,5 km/h (3 Bft)
23.10.2022 20:36 13,3 C 12,2 C 90 % 1009,5 hPa 0,0 l/m 8,2 km/h (2 Bft) S-SO 149 0 min 0,0 UV-I 0 W/m 11,7 C 12,2 C 14,5 km/h (3 Bft)
23.10.2022 20:39 13,5 C 12,2 C 90 % 1009,7 hPa 0,0 l/m 8,6 km/h (2 Bft) S-SO 148 0 min 0,0 UV-I 0 W/m 11,9 C 12,2 C 14,5 km/h (3 Bft)
23.10.2022 20:42 13,6 C 11,7 C 89 % 1009,6 hPa 0,0 l/m 6,4 km/h (2 Bft) SO 140 0 min 0,0 UV-I 0 W/m 11,8 C 13,6 C 12,9 km/h (3 Bft)
23.10.2022 20:45 13,6 C 12,2 C 89 % 1009,6 hPa 0,0 l/m 7,0 km/h (2 Bft) S-SW 198 0 min 0,0 UV-I 0 W/m 11,8 C 13,2 C 11,3 km/h (2 Bft)
23.10.2022 20:48 13,7 C 12,2 C 89 % 1009,5 hPa 0,0 l/m 7,5 km/h (2 Bft) S-SO 162 0 min 0,0 UV-I 0 W/m 11,9 C 13,0 C 16,1 km/h (3 Bft)
23.10.2022 20:51 13,7 C 12,2 C 89 % 1009,6 hPa 0,0 l/m 10,4 km/h (2 Bft) S-SO 156 0 min 0,0 UV-I 0 W/m 11,9 C 11,5 C 16,1 km/h (3 Bft)
23.10.2022 20:54 13,8 C 12,2 C 89 % 1009,7 hPa 0,0 l/m 10,1 km/h (2 Bft) S-SW 205 0 min 0,0 UV-I 0 W/m 12,0 C 11,7 C 14,5 km/h (3 Bft)
23.10.2022 20:57 13,7 C 12,2 C 89 % 1009,6 hPa 0,0 l/m 10,7 km/h (2 Bft) S-SO 157 0 min 0,0 UV-I 0 W/m 11,9 C 11,3 C 16,1 km/h (3 Bft)
23.10.2022 21:00 13,7 C 12,2 C 89 % 1009,5 hPa 0,0 l/m 10,8 km/h (2 Bft) S-SO 165 0 min 0,0 UV-I 0 W/m 11,9 C 11,3 C 19,3 km/h (3 Bft)
23.10.2022 21:03 13,8 C 12,2 C 89 % 1009,3 hPa 0,0 l/m 9,7 km/h (2 Bft) S-SO 167 0 min 0,0 UV-I 0 W/m 12,0 C 11,9 C 16,1 km/h (3 Bft)
23.10.2022 21:06 13,7 C 11,7 C 89 % 1009,2 hPa 0,0 l/m 8,2 km/h (2 Bft) S 184 0 min 0,0 UV-I 0 W/m 11,9 C 12,6 C 12,9 km/h (3 Bft)
23.10.2022 21:09 13,6 C 11,7 C 89 % 1009,2 hPa 0,0 l/m 8,3 km/h (2 Bft) S-SO 164 0 min 0,0 UV-I 0 W/m 11,8 C 12,5 C 16,1 km/h (3 Bft)
23.10.2022 21:12 13,7 C 12,2 C 89 % 1009,3 hPa 0,0 l/m 9,9 km/h (2 Bft) S-SO 160 0 min 0,0 UV-I 0 W/m 11,9 C 11,7 C 19,3 km/h (3 Bft)
23.10.2022 21:15 13,7 C 12,2 C 89 % 1009,3 hPa 0,0 l/m 13,2 km/h (3 Bft) S-SO 157 0 min 0,0 UV-I 0 W/m 11,9 C 10,3 C 24,1 km/h (4 Bft)
23.10.2022 21:18 13,7 C 12,2 C 88 % 1009,4 hPa 0,0 l/m 13,6 km/h (3 Bft) S 177 0 min 0,0 UV-I 0 W/m 11,7 C 10,1 C 20,9 km/h (4 Bft)
23.10.2022 21:21 13,8 C 12,2 C 88 % 1009,5 hPa 0,0 l/m 14,1 km/h (3 Bft) S 186 0 min 0,0 UV-I 0 W/m 11,8 C 10,1 C 29,0 km/h (5 Bft)
23.10.2022 21:24 13,9 C 12,2 C 88 % 1009,5 hPa 0,0 l/m 17,0 km/h (3 Bft) SW 216 0 min 0,0 UV-I 0 W/m 11,9 C 9,2 C 25,7 km/h (4 Bft)
23.10.2022 21:27 13,9 C 12,2 C 87 % 1009,6 hPa 0,0 l/m 17,3 km/h (3 Bft) S-SW 195 0 min 0,0 UV-I 0 W/m 11,8 C 9,1 C 30,6 km/h (5 Bft)
23.10.2022 21:30 13,9 C 12,2 C 87 % 1009,5 hPa 0,0 l/m 14,3 km/h (3 Bft) S-SW 200 0 min 0,0 UV-I 0 W/m 11,8 C 10,1 C 24,1 km/h (4 Bft)
23.10.2022 21:33 13,9 C 12,2 C 87 % 1009,6 hPa 0,0 l/m 16,8 km/h (3 Bft) S-SO 164 0 min 0,0 UV-I 0 W/m 11,8 C 9,3 C 30,6 km/h (5 Bft)
23.10.2022 21:36 13,9 C 12,2 C 86 % 1009,5 hPa 0,0 l/m 18,6 km/h (3 Bft) S-SO 158 0 min 0,0 UV-I 0 W/m 11,6 C 8,7 C 32,2 km/h (5 Bft)
23.10.2022 21:39 14,1 C 12,2 C 86 % 1009,7 hPa 0,0 l/m 17,1 km/h (3 Bft) S-SW 207 0 min 0,0 UV-I 0 W/m 11,8 C 9,4 C 27,4 km/h (4 Bft)
23.10.2022 21:42 14,0 C 12,2 C 86 % 1009,8 hPa 0,0 l/m 15,6 km/h (3 Bft) SO 144 0 min 0,0 UV-I 0 W/m 11,7 C 9,8 C 22,5 km/h (4 Bft)
23.10.2022 21:45 14,1 C 12,2 C 86 % 1009,9 hPa 0,0 l/m 19,4 km/h (3 Bft) SW 217 0 min 0,0 UV-I 0 W/m 11,8 C 8,7 C 32,2 km/h (5 Bft)
23.10.2022 21:48 14,1 C 12,2 C 85 % 1009,8 hPa 0,0 l/m 16,4 km/h (3 Bft) S-SW 205 0 min 0,0 UV-I 0 W/m 11,6 C 9,6 C 27,4 km/h (4 Bft)
23.10.2022 21:51 14,1 C 12,2 C 85 % 1009,8 hPa 0,0 l/m 16,2 km/h (3 Bft) S-SW 212 0 min 0,0 UV-I 0 W/m 11,6 C 9,7 C 24,1 km/h (4 Bft)
23.10.2022 21:54 14,1 C 12,2 C 85 % 1009,7 hPa 0,0 l/m 18,8 km/h (3 Bft) SW 226 0 min 0,0 UV-I 0 W/m 11,6 C 8,9 C 27,4 km/h (4 Bft)
23.10.2022 21:57 14,2 C 12,2 C 85 % 1009,9 hPa 0,0 l/m 19,0 km/h (3 Bft) S 180 0 min 0,0 UV-I 0 W/m 11,7 C 9,0 C 30,6 km/h (5 Bft)
23.10.2022 22:00 14,1 C 12,2 C 85 % 1009,8 hPa 0,0 l/m 15,1 km/h (3 Bft) S-SW 209 0 min 0,0 UV-I 0 W/m 11,6 C 10,1 C 27,4 km/h (4 Bft)
23.10.2022 22:03 14,1 C 12,2 C 85 % 1009,9 hPa 0,0 l/m 16,7 km/h (3 Bft) S-SO 166 0 min 0,0 UV-I 0 W/m 11,6 C 9,5 C 25,7 km/h (4 Bft)
23.10.2022 22:06 14,1 C 12,2 C 85 % 1009,8 hPa 0,0 l/m 14,0 km/h (3 Bft) S 176 0 min 0,0 UV-I 0 W/m 11,6 C 10,5 C 24,1 km/h (4 Bft)
23.10.2022 22:09 14,0 C 12,2 C 86 % 1009,8 hPa 0,0 l/m 17,2 km/h (3 Bft) S-SO 158 0 min 0,0 UV-I 0 W/m 11,7 C 9,3 C 27,4 km/h (4 Bft)
23.10.2022 22:12 14,1 C 12,2 C 86 % 1009,9 hPa 0,0 l/m 17,6 km/h (3 Bft) S 176 0 min 0,0 UV-I 0 W/m 11,8 C 9,3 C 35,4 km/h (5 Bft)
23.10.2022 22:15 14,1 C 12,8 C 86 % 1009,8 hPa 0,0 l/m 18,3 km/h (3 Bft) S 182 0 min 0,0 UV-I 0 W/m 11,8 C 9,1 C 30,6 km/h (5 Bft)
23.10.2022 22:18 14,1 C 12,2 C 86 % 1009,8 hPa 0,0 l/m 16,0 km/h (3 Bft) S-SW 206 0 min 0,0 UV-I 0 W/m 11,8 C 9,8 C 33,8 km/h (5 Bft)
23.10.2022 22:21 14,1 C 12,2 C 86 % 1009,8 hPa 0,0 l/m 17,6 km/h (3 Bft) S-SO 152 0 min 0,0 UV-I 0 W/m 11,8 C 9,3 C 27,4 km/h (4 Bft)
23.10.2022 22:24 14,2 C 12,8 C 86 % 1009,9 hPa 0,0 l/m 18,7 km/h (3 Bft) SW 233 0 min 0,0 UV-I 0 W/m 11,9 C 9,1 C 30,6 km/h (5 Bft)
23.10.2022 22:27 14,2 C 12,8 C 86 % 1010,0 hPa 0,0 l/m 18,5 km/h (3 Bft) S 180 0 min 0,0 UV-I 0 W/m 11,9 C 9,1 C 32,2 km/h (5 Bft)
23.10.2022 22:30 14,3 C 12,8 C 85 % 1009,9 hPa 0,0 l/m 15,6 km/h (3 Bft) S 178 0 min 0,0 UV-I 0 W/m 11,8 C 10,1 C 27,4 km/h (4 Bft)
23.10.2022 22:33 14,4 C 12,8 C 85 % 1010,3 hPa 0,0 l/m 23,0 km/h (4 Bft) S-SW 200 0 min 0,0 UV-I 0 W/m 11,9 C 8,2 C 37,0 km/h (5 Bft)
23.10.2022 22:36 14,6 C 12,8 C 85 % 1010,1 hPa 0,0 l/m 22,4 km/h (4 Bft) S 186 0 min 0,0 UV-I 0 W/m 12,1 C 8,6 C 38,6 km/h (5 Bft)
23.10.2022 22:39 14,6 C 12,8 C 84 % 1010,2 hPa 0,0 l/m 19,0 km/h (3 Bft) S-SW 192 0 min 0,0 UV-I 0 W/m 11,9 C 9,5 C 30,6 km/h (5 Bft)
23.10.2022 22:42 14,6 C 12,8 C 84 % 1010,2 hPa 0,0 l/m 21,3 km/h (4 Bft) S 186 0 min 0,0 UV-I 0 W/m 11,9 C 8,9 C 35,4 km/h (5 Bft)
23.10.2022 22:45 14,6 C 12,8 C 84 % 1010,1 hPa 0,0 l/m 19,0 km/h (3 Bft) S 182 0 min 0,0 UV-I 0 W/m 11,9 C 9,5 C 32,2 km/h (5 Bft)
23.10.2022 22:48 14,5 C 12,8 C 84 % 1010,1 hPa 0,0 l/m 21,1 km/h (4 Bft) S-SW 192 0 min 0,0 UV-I 0 W/m 11,8 C 8,8 C 33,8 km/h (5 Bft)
23.10.2022 22:51 14,5 C 12,8 C 84 % 1010,2 hPa 0,0 l/m 18,0 km/h (3 Bft) S 174 0 min 0,0 UV-I 0 W/m 11,8 C 9,6 C 29,0 km/h (5 Bft)
23.10.2022 22:54 14,5 C 12,8 C 84 % 1010,1 hPa 0,0 l/m 18,9 km/h (3 Bft) S 175 0 min 0,0 UV-I 0 W/m 11,8 C 9,4 C 29,0 km/h (5 Bft)
23.10.2022 22:57 14,5 C 12,8 C 84 % 1010,2 hPa 0,0 l/m 21,0 km/h (4 Bft) S-SW 196 0 min 0,0 UV-I 0 W/m 11,8 C 8,8 C 35,4 km/h (5 Bft)
23.10.2022 23:00 14,6 C 13,3 C 84 % 1010,2 hPa 0,0 l/m 22,6 km/h (4 Bft) S 175 0 min 0,0 UV-I 0 W/m 11,9 C 8,6 C 38,6 km/h (5 Bft)
23.10.2022 23:03 14,5 C 13,3 C 84 % 1010,2 hPa 0,0 l/m 20,5 km/h (4 Bft) S-SW 200 0 min 0,0 UV-I 0 W/m 11,8 C 9,0 C 33,8 km/h (5 Bft)
23.10.2022 23:06 14,5 C 13,3 C 84 % 1010,3 hPa 0,0 l/m 20,3 km/h (4 Bft) S 182 0 min 0,0 UV-I 0 W/m 11,8 C 9,0 C 37,0 km/h (5 Bft)
23.10.2022 23:09 14,5 C 13,3 C 84 % 1010,3 hPa 0,0 l/m 17,6 km/h (3 Bft) S 189 0 min 0,0 UV-I 0 W/m 11,8 C 9,8 C 35,4 km/h (5 Bft)
23.10.2022 23:12 14,4 C 13,3 C 84 % 1010,3 hPa 0,0 l/m 18,6 km/h (3 Bft) S-SO 157 0 min 0,0 UV-I 0 W/m 11,7 C 9,4 C 32,2 km/h (5 Bft)
23.10.2022 23:15 14,4 C 13,3 C 84 % 1010,3 hPa 0,0 l/m 16,9 km/h (3 Bft) S 188 0 min 0,0 UV-I 0 W/m 11,7 C 9,9 C 30,6 km/h (5 Bft)
23.10.2022 23:18 14,4 C 13,3 C 84 % 1010,3 hPa 0,0 l/m 15,3 km/h (3 Bft) S 169 0 min 0,0 UV-I 0 W/m 11,7 C 10,4 C 24,1 km/h (4 Bft)
23.10.2022 23:21 14,3 C 13,3 C 85 % 1010,4 hPa 0,0 l/m 15,5 km/h (3 Bft) S 184 0 min 0,0 UV-I 0 W/m 11,8 C 10,2 C 32,2 km/h (5 Bft)
23.10.2022 23:24 14,3 C 12,8 C 85 % 1010,5 hPa 0,0 l/m 15,7 km/h (3 Bft) S 169 0 min 0,0 UV-I 0 W/m 11,8 C 10,1 C 25,7 km/h (4 Bft)
23.10.2022 23:27 14,3 C 13,3 C 85 % 1010,3 hPa 0,0 l/m 16,7 km/h (3 Bft) S 179 0 min 0,0 UV-I 0 W/m 11,8 C 9,8 C 32,2 km/h (5 Bft)
23.10.2022 23:30 14,3 C 13,3 C 85 % 1010,3 hPa 0,0 l/m 16,7 km/h (3 Bft) S 180 0 min 0,0 UV-I 0 W/m 11,8 C 9,8 C 27,4 km/h (4 Bft)
23.10.2022 23:33 14,3 C 13,3 C 85 % 1010,3 hPa 0,0 l/m 17,4 km/h (3 Bft) S-SO 164 0 min 0,0 UV-I 0 W/m 11,8 C 9,6 C 25,7 km/h (4 Bft)
23.10.2022 23:36 14,3 C 13,3 C 85 % 1010,3 hPa 0,0 l/m 13,8 km/h (3 Bft) S 180 0 min 0,0 UV-I 0 W/m 11,8 C 10,8 C 29,0 km/h (5 Bft)
23.10.2022 23:39 14,3 C 12,8 C 85 % 1010,3 hPa 0,0 l/m 17,0 km/h (3 Bft) S-SW 197 0 min 0,0 UV-I 0 W/m 11,8 C 9,7 C 25,7 km/h (4 Bft)
23.10.2022 23:42 14,2 C 12,8 C 85 % 1010,3 hPa 0,0 l/m 14,6 km/h (3 Bft) S 188 0 min 0,0 UV-I 0 W/m 11,7 C 10,4 C 24,1 km/h (4 Bft)
23.10.2022 23:45 14,3 C 12,8 C 85 % 1010,3 hPa 0,0 l/m 17,6 km/h (3 Bft) S-SW 197 0 min 0,0 UV-I 0 W/m 11,8 C 9,5 C 30,6 km/h (5 Bft)
23.10.2022 23:48 14,2 C 12,8 C 85 % 1010,3 hPa 0,0 l/m 12,1 km/h (2 Bft) S-SW 198 0 min 0,0 UV-I 0 W/m 11,7 C 11,3 C 19,3 km/h (3 Bft)
23.10.2022 23:51 14,2 C 12,8 C 85 % 1010,3 hPa 0,0 l/m 14,4 km/h (3 Bft) S-SO 158 0 min 0,0 UV-I 0 W/m 11,7 C 10,4 C 24,1 km/h (4 Bft)
23.10.2022 23:54 14,1 C 12,8 C 85 % 1010,3 hPa 0,0 l/m 13,9 km/h (3 Bft) S-SW 195 0 min 0,0 UV-I 0 W/m 11,6 C 10,5 C 22,5 km/h (4 Bft)
23.10.2022 23:57 14,1 C 12,8 C 86 % 1010,2 hPa 0,0 l/m 15,1 km/h (3 Bft) S 182 0 min 0,0 UV-I 0 W/m 11,8 C 10,1 C 25,7 km/h (4 Bft)
_ Min-Zeit 02:39 01:48 13:51 21:06 - 00:15 - - - - - 02:39 02:39 00:15
Minimum _ 5,6 C 4,4 C 77 % 1009,2 hPa - 0,0 km/h (0 Bft) - - - - - 4,7 C 5,6 C 0,0 km/h (0 Bft)
_ Max-Zeit 15:54 11:18 09:12 00:00 18:15 22:33 - - 11:12 13:00 13:00 17:18 15:54 18:15
Maximum _ 16,9 C 20,6 C 96 % 1017,5 hPa 0,8 l/m 23,0 km/h
S-SW (4 Bft)
- - 3 min 1,8 UV-I 391 W/m 13,8 C 16,9 C 43,5 km/h
S (6 Bft)
Durchschnitt _ 11,4 C 11,1 C 89 % 1013,0 hPa #11,4 l/m 6,4 km/h (2 Bft) S - #1:21 h 1,1 UV-I 167 W/m 9,6 C 10,2 C 11,4 km/h (2 Bft)